[{"header": {"dx": 0.06612293990616946, "dy": 0.0552356325346848, "nx": 98, "ny": 59, "la1": 35.046912555036876, "la2": 31.78801023549047, "lo1": -121.43107172385933, "lo2": -114.95102361305473, "refTime": "2026041301", "parameterCategory": 1, "parameterNumber": 2}, "data": [12.65, 12.65, 12.27, 12.27, 12.27, 12.27, 12.65, 12.95, 12.95, 12.95, 11.69, 9.81, 10.61, 8.94, 8.23, 8.93, 8.93, 8.93, 9.09, 9.09, 9.46, 9.82, 8.35, 7.9, 8.22, 8.53, 8.53, 8.85, 7.73, 7.24, 6.45, 6.7, 6.7, 7.54, 8.07, 8.15, 9.55, 4.0, 7.6, -5.69, 0.0, 9.83, 11.62, 11.6, 12.79, 13.74, 14.51, 13.89, 12.38, 10.4, 9.67, 10.18, 10.61, 11.06, 11.06, 10.75, 11.06, 11.5, 10.84, 10.84, 10.92, 10.92, 10.98, 10.66, 10.37, 9.92, 9.73, 9.81, 9.94, 9.94, 10.61, 11.06, 12.29, 13.36, 14.51, 15.19, 15.42, 15.19, 15.35, 13.72, 12.53, 10.93, 10.58, 11.3, 8.05, 5.63, 6.2, 6.65, 7.89, 8.45, 8.87, 9.36, 9.36, 10.54, 10.54, 11.26, 10.51, 9.06, 12.27, 12.65, 12.27, 12.27, 12.27, 12.27, 13.03, 13.34, 12.95, 12.95, 11.31, 10.37, 9.3, 8.58, 8.93, 9.09, 8.23, 9.46, 9.09, 8.12, 8.53, 8.53, 7.02, 8.15, 7.48, 7.48, 7.48, 7.36, 6.45, 5.4, 5.48, 5.48, 5.8, 6.48, 5.21, 4.37, 2.54, -3.6, -7.6, -6.32, -0.0, 6.45, 9.17, 10.77, 12.29, 13.23, 13.91, 12.02, 10.97, 9.82, 10.31, 10.31, 10.75, 10.81, 10.43, 10.75, 10.75, 11.14, 11.2, 10.84, 10.92, 10.98, 10.28, 10.37, 9.17, 8.85, 9.54, 9.09, 9.67, 10.92, 12.15, 12.29, 12.76, 13.54, 14.57, 14.79, 15.18, 15.19, 15.35, 13.72, 12.53, 10.93, 10.58, 11.3, 8.05, 5.63, 6.2, 6.65, 7.89, 8.45, 8.87, 9.36, 9.36, 10.54, 10.54, 11.26, 10.51, 9.06, 12.27, 12.65, 12.27, 12.27, 12.27, 12.27, 13.03, 13.03, 13.34, 12.56, 10.99, 8.42, 9.3, 9.3, 8.47, 8.93, 9.3, 9.3, 8.41, 8.85, 6.86, 6.76, 5.77, 7.51, 8.51, 7.36, 6.57, 5.76, 4.25, 3.29, 4.1, 4.61, 4.87, 4.81, 3.36, 2.69, 2.54, 4.0, 2.28, 3.25, 5.2, 7.13, 9.23, 11.32, 13.23, 13.53, 12.88, 11.73, 9.67, 9.97, 10.31, 10.43, 10.84, 10.43, 9.73, 10.75, 10.75, 11.54, 11.2, 11.26, 10.92, 10.63, 9.96, 9.02, 8.85, 8.22, 9.09, 9.67, 10.47, 11.83, 12.63, 13.46, 12.86, 13.58, 14.59, 14.88, 14.75, 14.84, 13.83, 13.44, 12.09, 11.33, 9.77, 5.8, 4.24, 5.45, 6.0, 6.88, 7.89, 8.87, 9.8, 10.12, 9.89, 10.22, 10.58, 10.58, 9.48, 8.66, 13.02, 12.79, 12.27, 12.27, 12.27, 12.27, 13.03, 13.03, 13.43, 12.17, 10.6, 8.79, 10.24, 8.94, 8.94, 9.3, 9.67, 9.66, 9.08, 7.9, 6.86, 5.95, 6.2, 7.72, 7.64, 8.51, 5.86, 4.92, 2.47, 1.69, 2.44, 3.23, 3.14, 3.53, 3.47, 3.61, 3.87, 6.2, 6.16, 4.98, 6.66, 8.4, 9.69, 10.17, 11.04, 11.13, 10.22, 9.36, 9.67, 10.12, 9.8, 10.12, 9.8, 10.12, 9.7, 10.51, 10.84, 10.84, 11.6, 10.92, 10.98, 9.96, 9.32, 8.65, 8.22, 7.82, 9.25, 9.87, 11.38, 11.82, 13.36, 14.33, 14.47, 13.02, 14.33, 14.93, 13.92, 13.01, 15.23, 12.96, 11.36, 11.21, 6.45, 3.93, 4.4, 5.91, 6.94, 8.14, 8.31, 9.32, 11.06, 11.33, 10.3, 10.3, 10.24, 9.89, 9.06, 8.18, 13.02, 12.79, 12.27, 12.27, 12.27, 12.27, 13.59, 13.59, 13.43, 12.62, 10.6, 8.79, 9.86, 9.09, 9.1, 9.3, 9.17, 9.66, 8.53, 6.7, 6.21, 5.54, 5.95, 7.44, 5.95, 6.4, 6.08, 4.72, 2.71, 0.89, 0.85, 1.69, 2.82, 2.82, 5.0, 5.0, 5.92, 7.54, 8.68, 6.81, 7.39, 7.8, 7.21, 7.26, 8.31, 8.87, 9.36, 9.8, 9.8, 10.22, 9.89, 9.48, 9.48, 9.8, 9.7, 10.51, 10.51, 10.92, 10.92, 10.98, 9.59, 8.49, 7.97, 7.36, 7.67, 8.68, 9.67, 10.47, 11.25, 11.7, 12.9, 15.11, 16.01, 15.99, 13.56, 13.23, 13.15, 12.24, 13.94, 13.59, 11.03, 7.95, 4.97, 4.53, 4.4, 6.43, 8.22, 8.99, 9.32, 11.06, 11.68, 10.65, 10.37, 9.96, 9.56, 9.06, 8.66, 8.18, 12.79, 12.79, 12.5, 12.27, 12.9, 12.9, 13.59, 13.19, 13.43, 12.62, 10.6, 8.82, 9.48, 8.73, 9.7, 9.09, 8.82, 9.16, 7.85, 6.63, 6.08, 5.4, 6.65, 6.43, 4.75, 4.75, 4.08, 3.92, 2.42, 2.71, 1.84, 2.04, 2.13, 3.82, 6.51, 6.9, 7.43, 10.36, 11.48, 7.63, 4.23, 5.81, 6.0, 7.1, 8.14, 9.39, 10.31, 10.43, 10.22, 9.48, 9.17, 9.48, 9.36, 9.8, 10.12, 10.51, 10.92, 11.34, 11.34, 10.3, 8.67, 7.21, 6.62, 7.0, 8.77, 9.37, 9.67, 9.39, 10.95, 11.7, 12.5, 12.45, 13.92, 15.28, 16.79, 14.73, 12.63, 12.14, 11.64, 11.64, 9.5, 5.67, 5.09, 5.65, 5.64, 6.43, 8.65, 9.97, 11.53, 11.68, 10.99, 10.98, 10.3, 9.56, 9.06, 9.06, 8.18, 8.18, 12.79, 12.79, 12.5, 12.9, 12.9, 12.9, 13.19, 13.19, 13.02, 12.62, 10.6, 8.43, 9.1, 8.73, 9.42, 8.59, 9.16, 8.85, 8.15, 6.63, 6.87, 6.4, 7.16, 5.81, 5.34, 5.81, 4.18, 3.47, 4.55, 4.36, 2.95, 2.04, 2.13, 2.39, 4.72, 6.2, 8.78, 9.8, 8.87, 4.24, 1.77, 2.81, 5.63, 6.95, 8.72, 9.53, 10.95, 11.06, 9.8, 9.21, 9.21, 9.06, 9.8, 10.22, 10.22, 10.98, 11.39, 10.73, 10.73, 9.17, 6.96, 4.81, 5.49, 6.85, 8.39, 9.92, 10.05, 10.31, 10.75, 11.88, 12.98, 12.26, 13.26, 14.57, 15.39, 16.0, 14.1, 12.31, 11.03, 9.8, 7.59, 6.34, 6.31, 6.99, 6.62, 8.18, 9.97, 11.53, 12.02, 11.09, 10.91, 10.9, 10.54, 9.36, 9.06, 8.3, 8.59, 8.18, 12.39, 12.79, 12.5, 12.5, 12.9, 12.9, 13.7, 13.7, 12.79, 12.21, 10.0, 8.43, 8.37, 8.59, 9.77, 7.9, 9.16, 9.17, 8.44, 7.79, 8.59, 7.44, 6.0, 6.16, 6.8, 6.8, 4.95, 5.09, 6.6, 6.0, 3.82, 1.71, 1.77, 3.96, 4.54, 6.63, 8.44, 8.41, 8.22, 5.2, 3.56, 5.46, 7.98, 9.87, 10.47, 10.43, 10.43, 11.06, 10.01, 9.87, 9.17, 9.89, 10.22, 10.22, 10.65, 11.16, 10.79, 10.48, 9.36, 7.68, 4.1, 3.69, 5.34, 7.53, 9.12, 10.83, 10.95, 11.5, 12.05, 12.41, 13.02, 14.11, 14.42, 15.12, 15.78, 14.94, 14.37, 12.66, 8.54, 8.43, 9.62, 8.33, 7.23, 7.89, 8.43, 8.84, 10.51, 12.13, 11.39, 11.03, 10.55, 9.9, 9.36, 8.95, 8.66, 9.06, 8.59, 8.87, 12.39, 12.79, 12.5, 12.5, 12.9, 13.48, 13.7, 13.7, 13.28, 11.6, 10.4, 10.16, 11.12, 9.96, 9.62, 9.62, 9.96, 9.48, 8.59, 7.44, 8.05, 8.05, 7.13, 5.31, 5.8, 6.71, 4.4, 5.15, 5.81, 5.31, 2.28, 2.5, 4.81, 6.2, 7.28, 8.22, 8.94, 7.9, 7.27, 5.95, 6.43, 7.32, 8.57, 8.85, 10.18, 9.64, 11.1, 11.36, 10.75, 10.75, 10.75, 9.56, 10.65, 11.09, 11.53, 11.2, 10.35, 9.53, 7.65, 5.45, 3.12, 3.69, 5.48, 7.67, 9.25, 10.95, 12.92, 13.1, 13.99, 13.7, 14.31, 14.5, 15.17, 14.75, 14.3, 14.3, 14.47, 9.71, 7.42, 9.23, 11.0, 9.47, 8.84, 9.37, 9.39, 9.8, 10.63, 11.04, 11.04, 10.53, 9.92, 9.17, 8.29, 9.53, 9.53, 9.67, 9.36, 8.87, 12.39, 12.39, 12.5, 12.5, 13.48, 13.48, 13.7, 13.7, 13.28, 12.04, 11.2, 11.6, 10.55, 11.72, 12.03, 11.16, 11.9, 11.52, 10.43, 9.48, 7.78, 7.78, 6.2, 6.4, 8.58, 6.97, 4.2, 2.6, 3.58, 5.31, 6.6, 7.4, 9.39, 8.66, 7.54, 8.73, 8.58, 6.64, 8.22, 8.3, 7.96, 7.96, 8.22, 9.17, 9.17, 9.42, 9.77, 10.03, 10.12, 10.75, 10.84, 10.92, 10.65, 10.38, 10.94, 10.73, 9.86, 8.93, 5.77, 3.53, 2.81, 4.53, 5.78, 7.67, 9.52, 11.79, 13.26, 14.62, 13.57, 13.72, 13.82, 13.41, 14.3, 14.75, 14.3, 14.3, 10.75, 5.46, 6.85, 9.42, 11.25, 11.73, 10.31, 10.61, 10.75, 10.58, 10.9, 11.04, 10.65, 9.92, 8.9, 7.9, 8.87, 9.44, 10.75, 10.43, 9.36, 9.36, 12.39, 12.39, 13.28, 13.7, 13.7, 13.7, 13.7, 13.7, 13.28, 12.45, 12.04, 12.39, 12.11, 12.11, 13.15, 13.15, 14.38, 13.27, 13.68, 14.4, 14.51, 13.61, 13.26, 11.52, 11.8, 9.17, 6.17, 2.49, 4.1, 7.69, 9.17, 10.37, 9.42, 9.3, 9.7, 10.8, 9.08, 9.08, 8.53, 9.8, 9.5, 9.48, 8.75, 10.09, 9.7, 8.93, 8.35, 7.9, 8.53, 9.17, 10.01, 10.92, 10.92, 9.73, 9.92, 10.17, 9.33, 6.9, -0.0, -0.0, 2.87, 5.12, 6.13, 7.89, 10.33, 13.07, 14.2, 14.0, 14.44, 12.96, 12.42, 12.96, 14.3, 14.3, 13.86, 12.39, 4.52, 5.98, 8.33, 10.13, 11.08, 11.95, 12.07, 11.38, 10.84, 10.63, 10.53, 10.48, 10.09, 8.59, 7.73, 8.59, 9.32, 10.12, 10.43, 10.54, 10.12, 9.67, 12.87, 12.87, 13.28, 13.7, 13.7, 14.13, 14.13, 14.13, 13.7, 12.45, 12.45, 12.87, 13.19, 12.79, 12.45, 11.99, 11.62, 13.7, 14.39, 14.85, 14.46, 13.65, 13.27, 13.8, 10.73, 10.37, 10.01, 5.03, 9.3, 9.75, 10.18, 10.79, 9.97, 9.04, 9.86, 9.63, 8.99, 9.66, 9.42, 9.48, 10.43, 11.16, 10.55, 9.7, 8.55, 6.64, 6.5, 6.16, 6.4, 7.24, 7.63, 9.35, 9.24, 8.2, 7.61, 7.6, 7.4, 6.17, -2.13, -2.56, 0.97, 5.27, 7.04, 8.05, 9.17, 11.95, 13.96, 13.96, 11.1, 9.92, 0.0, 14.3, 12.96, 12.96, 12.04, 6.2, 5.81, 7.4, 9.8, 11.19, 11.86, 12.01, 12.16, 11.88, 10.9, 10.66, 9.9, 10.23, 9.3, 8.6, 8.53, 8.85, 9.17, 10.38, 10.25, 10.12, 9.8, 9.36, 12.87, 12.87, 13.28, 14.13, 14.13, 14.13, 14.13, 13.7, 13.7, 13.27, 12.87, 13.28, 13.7, 14.11, 14.53, 14.66, 13.28, 11.99, 11.6, 11.5, 11.16, 11.16, 11.72, 12.25, 12.25, 12.25, 11.99, 12.33, 11.21, 9.83, 10.73, 10.79, 11.03, 10.6, 9.45, 9.21, 8.72, 8.41, 8.22, 9.08, 10.41, 10.94, 10.55, 8.72, 7.68, 4.4, 3.77, 5.4, 5.4, 6.76, 5.86, 5.93, 5.15, 5.21, 6.53, 6.71, 9.24, 9.49, 2.82, -3.14, -0.0, 4.79, 7.0, 6.4, 6.81, 7.85, 10.0, 11.44, 12.08, 12.65, 11.37, 17.88, 15.2, 11.2, 7.11, 6.93, 7.8, 10.13, 11.24, 12.07, 11.49, 11.54, 11.8, 11.9, 11.25, 11.76, 12.36, 10.81, 9.04, 8.27, 8.6, 8.6, 9.34, 9.97, 9.8, 9.8, 9.8, 9.36, 12.87, 12.87, 13.27, 13.7, 14.13, 13.7, 13.7, 13.8, 13.7, 13.7, 13.28, 13.28, 13.7, 14.11, 15.53, 15.53, 15.12, 13.59, 12.65, 11.72, 11.72, 11.72, 12.65, 13.99, 13.68, 13.68, 12.79, 13.15, 13.15, 12.71, 11.4, 11.4, 11.71, 10.18, 9.2, 8.18, 7.13, 7.27, 7.27, 8.07, 9.67, 9.48, 9.58, 8.73, 5.46, 3.87, 3.65, 4.4, 5.54, 5.77, 5.54, 4.58, 3.68, 5.46, 7.19, 7.41, 11.2, 12.64, 7.16, -0.93, -0.86, 2.64, 6.1, 5.19, 4.53, 5.21, 6.37, 7.06, 11.07, 15.85, 14.73, 10.76, -0.0, 1.98, 6.37, 8.55, 9.96, 11.56, 12.64, 12.78, 11.52, 11.28, 11.75, 12.47, 11.42, 11.66, 12.18, 11.69, 9.0, 8.6, 8.94, 9.0, 9.69, 9.97, 9.59, 9.02, 9.32, 9.67, 13.27, 13.27, 13.27, 13.7, 13.7, 14.03, 14.07, 14.07, 13.7, 13.7, 13.7, 14.13, 14.13, 14.66, 15.53, 15.96, 15.54, 14.18, 13.18, 12.82, 12.29, 12.82, 12.82, 12.7, 13.39, 13.76, 13.65, 12.73, 12.65, 12.65, 12.87, 11.2, 10.8, 8.58, 8.23, 6.14, 6.58, 6.18, 8.59, 8.23, 8.58, 9.67, 8.38, 6.7, 5.21, 3.87, 3.87, 4.05, 5.32, 5.95, 5.95, 5.7, 5.06, 5.1, 7.15, 8.72, 9.75, 11.57, 7.98, 1.3, -0.0, 2.37, 3.73, 3.53, 4.74, 4.89, 4.73, 7.4, 9.99, 14.22, 16.61, 14.92, 8.57, 2.72, 6.81, 9.47, 11.56, 12.64, 14.2, 14.51, 13.49, 12.23, 11.34, 11.62, 10.96, 12.03, 11.8, 10.38, 9.96, 10.03, 10.12, 9.76, 9.64, 9.17, 9.48, 9.32, 10.12, 10.12, 13.27, 13.27, 13.27, 13.7, 14.03, 14.03, 14.07, 14.07, 14.03, 13.7, 14.13, 14.13, 14.23, 14.95, 15.09, 15.12, 15.06, 14.57, 13.26, 12.92, 13.01, 13.01, 12.03, 10.99, 10.99, 11.7, 10.89, 10.6, 10.18, 9.89, 10.75, 11.54, 10.43, 9.08, 8.03, 6.32, 6.95, 6.95, 8.59, 8.93, 7.81, 7.59, 7.59, 6.3, 5.46, 5.46, 4.4, 4.4, 5.7, 6.14, 7.27, 8.03, 7.68, 7.67, 7.89, 7.89, 8.3, 7.44, 5.45, 3.73, 3.42, 3.53, 3.53, 3.21, 3.53, 3.82, 4.49, 7.69, 10.33, 13.91, 15.79, 15.38, 12.69, 6.52, 8.33, 11.56, 13.28, 14.61, 14.26, 14.46, 14.22, 14.58, 13.39, 11.8, 10.4, 10.35, 11.53, 10.65, 10.99, 10.99, 11.09, 8.85, 9.48, 9.06, 8.76, 9.06, 9.36, 9.36, 13.27, 13.27, 14.03, 13.59, 13.59, 14.07, 14.07, 14.47, 14.03, 13.7, 14.13, 14.23, 14.95, 14.95, 15.09, 14.7, 13.74, 13.55, 12.63, 12.63, 12.8, 11.96, 10.05, 8.64, 8.64, 9.23, 8.28, 8.28, 8.28, 9.49, 10.61, 11.36, 10.77, 10.12, 6.32, 6.32, 6.64, 7.59, 8.03, 8.03, 7.59, 6.32, 6.3, 5.82, 6.58, 5.7, 5.7, 6.42, 7.27, 7.68, 7.68, 8.05, 8.05, 8.05, 8.4, 8.63, 8.54, 6.58, 5.92, 5.86, 5.86, 4.6, 3.87, 3.87, 3.87, 3.81, 3.92, 6.63, 8.72, 13.91, 18.2, 15.96, 13.76, 8.74, 10.31, 12.64, 14.82, 15.25, 16.02, 15.37, 14.39, 13.99, 12.74, 11.69, 10.62, 10.25, 10.56, 11.34, 11.69, 11.69, 10.3, 8.85, 8.72, 9.36, 9.32, 8.76, 9.48, 9.48, 13.59, 13.59, 14.03, 14.03, 13.59, 13.59, 14.03, 14.03, 14.47, 14.51, 14.23, 14.66, 14.75, 14.66, 14.66, 14.28, 13.42, 12.03, 11.7, 12.29, 11.96, 10.05, 7.0, 6.8, 7.0, 7.71, 6.36, 7.4, 7.92, 8.78, 9.67, 11.32, 12.03, 11.38, 8.85, 7.06, 6.32, 8.03, 8.38, 8.03, 7.68, 6.95, 6.95, 6.95, 7.27, 6.58, 7.27, 7.27, 7.68, 8.18, 8.18, 8.43, 7.87, 7.87, 8.43, 8.18, 8.0, 7.81, 7.9, 6.97, 6.71, 5.69, 5.1, 5.46, 4.2, 4.2, 4.18, 5.77, 7.56, 13.2, 18.02, 17.59, 15.61, 12.13, 12.63, 14.4, 15.63, 16.39, 16.97, 15.15, 13.99, 13.76, 13.01, 10.65, 10.38, 10.79, 11.16, 11.39, 12.13, 12.4, 11.53, 9.32, 8.72, 9.36, 9.8, 9.8, 9.56, 9.56, 13.63, 13.63, 13.59, 14.03, 13.59, 13.59, 14.03, 14.07, 14.51, 14.51, 14.51, 14.75, 15.18, 15.18, 14.28, 15.19, 12.27, 11.69, 11.06, 10.75, 10.39, 7.71, 6.02, 6.72, 6.17, 6.52, 5.73, 8.25, 8.47, 8.64, 10.25, 11.32, 11.32, 12.33, 11.06, 9.69, 7.95, 7.92, 8.34, 10.0, 8.72, 8.72, 8.55, 8.18, 7.9, 7.9, 7.56, 8.18, 8.18, 8.18, 8.18, 7.68, 7.87, 7.87, 8.43, 8.55, 8.18, 8.73, 8.75, 7.65, 6.71, 6.24, 5.98, 5.36, 4.98, 4.99, 4.99, 6.44, 8.55, 12.42, 15.38, 16.71, 19.78, 18.57, 17.16, 16.29, 15.99, 16.34, 16.86, 16.74, 13.9, 13.76, 12.65, 11.28, 11.8, 11.41, 12.99, 13.7, 12.94, 12.37, 12.15, 11.06, 9.32, 9.06, 9.97, 10.22, 10.3, 10.3, 13.63, 13.63, 13.63, 13.63, 13.8, 13.8, 14.25, 14.25, 14.69, 14.51, 14.55, 14.75, 15.18, 15.18, 14.7, 14.11, 12.65, 11.64, 11.88, 9.89, 11.06, 7.2, 7.2, 7.8, 7.4, 7.4, 8.03, 8.64, 9.12, 9.99, 10.89, 10.89, 11.66, 11.66, 12.63, 11.76, 10.48, 9.67, 8.88, 7.6, 8.0, 8.27, 8.11, 8.11, 7.72, 9.7, 8.55, 8.55, 8.18, 8.4, 7.81, 7.33, 6.64, 7.87, 7.44, 8.15, 9.86, 8.43, 8.79, 8.22, 6.69, 6.58, 6.3, 6.3, 4.56, 4.4, 5.7, 8.07, 10.58, 12.68, 14.84, 16.48, 22.36, 23.12, 18.78, 16.73, 15.36, 15.61, 15.12, 13.99, 13.2, 13.99, 13.39, 12.18, 11.92, 12.04, 13.15, 13.57, 13.19, 12.13, 11.53, 11.38, 10.43, 10.12, 10.51, 11.26, 11.64, 11.64, 13.63, 13.63, 13.8, 13.8, 13.8, 13.63, 13.67, 14.26, 14.55, 14.99, 14.55, 14.75, 15.18, 15.18, 14.84, 14.7, 13.43, 12.65, 10.23, 11.54, 11.06, 10.15, 9.17, 8.93, 8.74, 8.13, 9.23, 9.74, 10.0, 10.25, 11.17, 10.89, 12.33, 12.33, 12.63, 13.38, 11.93, 10.79, 10.04, 8.88, 8.11, 8.49, 8.49, 8.49, 8.11, 9.32, 8.8, 8.8, 9.2, 8.8, 8.0, 7.33, 6.64, 6.95, 8.23, 8.54, 9.4, 9.2, 8.73, 7.9, 7.27, 6.3, 6.3, 5.98, 5.46, 5.95, 7.95, 8.69, 10.12, 11.77, 13.91, 16.7, 21.34, 20.73, 17.26, 15.42, 14.67, 16.39, 15.87, 14.39, 14.62, 14.56, 13.92, 13.28, 12.89, 12.89, 14.1, 13.97, 12.94, 11.44, 11.42, 11.2, 11.53, 10.51, 10.9, 11.54, 12.13, 12.13, 13.8, 13.8, 13.8, 13.8, 13.63, 13.67, 13.7, 14.14, 14.37, 14.81, 14.75, 14.75, 14.81, 15.25, 14.84, 14.7, 13.84, 12.95, 12.45, 12.92, 12.7, 12.36, 11.38, 9.23, 9.12, 9.01, 9.36, 8.88, 8.88, 9.74, 10.89, 10.89, 12.33, 12.33, 13.26, 13.74, 12.65, 11.97, 10.81, 9.65, 8.88, 8.49, 8.11, 8.49, 8.88, 8.3, 9.6, 8.8, 8.4, 8.4, 6.98, 7.33, 7.68, 6.95, 6.95, 8.82, 8.58, 9.3, 8.93, 7.68, 6.32, 6.77, 6.31, 5.7, 6.59, 7.41, 8.24, 7.65, 7.78, 8.83, 11.03, 15.82, 16.81, 18.68, 8.53, 14.11, 17.74, 18.33, 16.91, 14.53, 15.29, 15.77, 15.0, 14.65, 14.61, 13.67, 13.19, 13.39, 12.4, 11.44, 10.58, 11.26, 11.95, 11.9, 11.53, 12.08, 12.62, 12.62, 13.8, 13.8, 13.8, 13.67, 13.67, 13.67, 13.94, 13.99, 14.42, 14.53, 14.42, 14.53, 14.95, 14.95, 14.84, 14.24, 14.03, 12.74, 12.65, 13.38, 13.74, 12.57, 10.75, 9.49, 8.33, 8.78, 9.01, 8.78, 9.12, 8.64, 10.33, 10.33, 11.7, 11.7, 12.92, 13.38, 13.58, 12.74, 11.2, 10.04, 9.27, 8.88, 8.49, 8.11, 8.49, 8.3, 10.4, 8.05, 7.67, 7.33, 7.33, 7.68, 7.68, 7.68, 8.03, 8.38, 7.9, 8.69, 9.3, 7.67, 5.86, 5.45, 6.41, 6.41, 7.14, 8.32, 8.54, 6.71, 6.2, 6.24, 9.13, 13.28, 19.99, -15.19, -0.0, 11.2, 13.88, 16.49, 17.38, 17.4, 15.11, 15.43, 15.27, 15.87, 15.16, 13.38, 11.8, 11.68, 13.1, 12.86, 11.09, 10.98, 11.9, 12.13, 11.69, 11.99, 11.99, 11.99, 13.86, 13.86, 13.81, 13.81, 13.67, 13.5, 13.5, 13.99, 14.1, 14.53, 14.53, 14.95, 15.04, 14.95, 14.84, 14.44, 13.99, 12.99, 13.02, 12.87, 12.8, 13.74, 11.96, 8.68, 7.66, 7.84, 8.78, 8.78, 9.36, 9.12, 10.05, 10.05, 11.38, 11.38, 12.57, 13.01, 13.58, 13.13, 11.58, 10.04, 8.88, 8.49, 9.2, 9.2, 8.0, 7.54, 8.93, 8.18, 7.68, 8.18, 8.55, 8.18, 8.18, 6.98, 7.68, 7.27, 7.27, 7.9, 8.59, 8.58, 3.15, 3.52, 6.2, 7.54, 8.02, 9.21, 7.96, 7.54, 6.44, 7.27, 8.55, 19.81, 21.87, 20.29, 15.99, 15.77, 15.87, 13.86, 14.68, 15.3, 15.82, 14.28, 14.73, 15.23, 14.38, 12.5, 11.69, 12.37, 12.73, 13.1, 11.44, 11.28, 11.3, 12.13, 11.99, 12.22, 12.01, 12.01, 13.81, 13.81, 13.81, 13.67, 13.67, 13.5, 13.5, 13.94, 14.1, 14.53, 14.53, 14.61, 15.04, 14.95, 14.84, 14.44, 13.99, 13.38, 12.65, 12.87, 12.87, 13.59, 13.15, 11.06, 7.88, 7.42, 8.56, 8.78, 9.36, 9.12, 10.61, 10.33, 10.47, 11.63, 11.96, 13.01, 13.58, 13.51, 12.36, 10.43, 9.03, 8.63, 8.8, 9.2, 8.63, 7.92, 7.54, 7.54, 7.54, 8.24, 7.85, 9.45, 8.0, 7.67, 7.67, 6.95, 7.27, 6.79, 7.27, 6.3, 5.06, 3.35, 6.69, 8.22, 8.02, 7.95, 7.18, 7.18, 7.72, 9.75, 11.05, 15.31, 19.82, 21.36, 19.48, 19.25, 18.81, 16.99, 14.4, 10.55, 13.62, 14.81, 15.2, 14.31, 12.94, 11.69, 12.03, 12.03, 12.0, 12.52, 13.65, 12.08, 11.88, 12.56, 12.01, 12.01, 11.71, 11.71, 13.82, 13.82, 13.67, 13.67, 13.67, 13.5, 13.5, 13.94, 14.1, 14.1, 14.61, 14.61, 14.73, 14.73, 14.95, 14.44, 13.99, 13.51, 13.02, 12.52, 12.52, 12.87, 13.59, 12.01, 9.17, 7.63, 8.11, 8.56, 10.25, 10.25, 9.99, 10.61, 11.06, 12.29, 12.57, 13.01, 13.58, 13.58, 13.74, 11.77, 9.81, 9.03, 8.63, 8.63, 8.67, 8.42, 8.06, 7.85, 7.85, 8.24, 8.67, 8.67, 9.04, 8.8, 8.43, 7.87, 7.87, 6.32, 6.01, 5.98, 6.58, 6.58, 6.11, 6.44, 7.14, 7.18, 6.92, 7.82, 8.47, 9.55, 10.18, 13.02, 15.35, 18.1, 21.1, 17.75, 18.18, 17.58, 16.09, 10.73, 11.99, 15.2, 14.56, 11.9, 11.6, 13.02, 12.27, 12.27, 11.88, 11.94, 13.43, 13.19, 12.92, 12.44, 11.75, 11.66, 11.28, 11.28, 13.7, 13.7, 13.7, 13.67, 13.7, 13.5, 13.5, 13.5, 13.67, 14.1, 14.61, 14.31, 14.73, 14.31, 14.73, 14.6, 14.44, 13.99, 13.51, 13.02, 12.52, 12.52, 12.87, 12.24, 9.92, 9.17, 8.11, 9.73, 9.99, 9.99, 9.99, 11.36, 12.63, 13.26, 13.38, 13.95, 13.95, 13.95, 14.52, 13.74, 12.17, 10.6, 9.42, 8.3, 8.42, 8.42, 8.82, 8.24, 8.14, 8.14, 8.67, 9.08, 8.95, 8.8, 8.8, 8.15, 8.43, 6.98, 4.68, 5.36, 7.59, 6.95, 7.15, 6.17, 7.02, 6.59, 7.72, 8.82, 9.97, 10.6, 11.27, 11.61, 13.39, 14.64, 14.97, 17.5, 16.41, 15.71, 13.54, 12.46, 12.52, 14.18, 12.79, 11.16, 12.03, 13.1, 13.87, 13.1, 12.86, 12.7, 12.92, 14.35, 14.75, 13.23, 12.58, 11.71, 11.28, 11.28, 13.7, 13.7, 13.7, 13.5, 13.7, 13.7, 13.7, 13.5, 13.94, 13.67, 14.18, 14.31, 14.42, 14.42, 14.31, 14.19, 14.44, 13.99, 13.51, 13.02, 13.02, 12.52, 12.52, 11.58, 10.19, 8.93, 9.47, 9.47, 9.73, 10.33, 11.06, 11.7, 12.63, 13.26, 13.26, 13.38, 13.95, 13.92, 13.92, 13.8, 12.65, 10.94, 9.43, 8.43, 8.82, 8.8, 9.2, 8.95, 8.55, 8.55, 8.55, 8.95, 9.36, 9.36, 9.96, 8.8, 8.4, 6.98, 5.53, 5.89, 7.76, 7.68, 7.27, 6.86, 6.86, 7.85, 9.3, 9.4, 9.8, 11.87, 13.32, 12.83, 12.37, 11.99, 11.86, 14.56, 18.74, 16.73, 17.35, 15.63, 12.79, 13.35, 13.77, 12.39, 12.39, 12.94, 13.74, 13.99, 14.3, 13.49, 13.29, 14.4, 15.27, 14.21, 13.49, 12.62, 12.33, 12.33, 13.7, 13.7, 13.5, 13.5, 13.5, 13.7, 13.5, 13.94, 13.94, 13.67, 13.89, 14.31, 14.84, 14.84, 14.84, 14.31, 14.19, 14.03, 13.59, 13.13, 13.02, 13.02, 13.02, 12.11, 10.47, 9.77, 9.2, 8.64, 9.73, 10.33, 11.06, 12.29, 12.29, 12.29, 12.29, 12.92, 13.38, 14.33, 14.33, 13.95, 13.42, 10.99, 9.97, 8.34, 7.96, 8.43, 9.6, 10.79, 10.4, 8.55, 8.95, 8.63, 8.63, 9.36, 9.77, 9.77, 8.93, 7.9, 6.64, 6.18, 7.41, 7.76, 6.04, 6.86, 7.42, 9.02, 9.52, 9.75, 9.76, 11.18, 12.81, 13.55, 12.35, 12.86, 14.22, 16.22, 17.9, 17.12, 18.05, 19.26, 16.39, 12.93, 13.32, 13.07, 13.74, 13.18, 13.42, 14.42, 15.13, 14.87, 14.11, 14.55, 14.47, 15.13, 14.84, 13.53, 12.77, 12.77, 13.55, 13.55, 13.5, 13.5, 13.5, 13.5, 13.5, 13.94, 13.94, 13.67, 13.67, 14.31, 14.31, 14.84, 14.94, 14.53, 14.31, 14.03, 13.59, 13.59, 13.51, 13.51, 13.02, 11.58, 10.47, 9.77, 8.16, 8.4, 10.05, 10.05, 11.38, 11.38, 11.38, 11.96, 12.29, 12.8, 13.38, 13.38, 14.33, 14.33, 13.8, 12.27, 10.99, 8.63, 7.06, 8.6, 10.8, 11.99, 11.5, 10.99, 9.43, 8.11, 8.63, 8.8, 9.49, 9.6, 9.27, 8.68, 8.07, 7.4, 6.73, 6.64, 7.27, 7.27, 7.27, 8.02, 8.31, 10.48, 9.11, 9.83, 11.11, 11.2, 13.02, 16.12, 15.34, 17.64, 17.4, 15.85, 17.05, 18.73, 17.99, 16.77, 15.06, 14.67, 15.42, 15.96, 15.22, 15.05, 15.13, 15.13, 14.23, 14.66, 14.68, 15.31, 15.31, 14.57, 13.67, 13.67, 13.11, 13.11, 13.55, 13.55, 13.5, 13.5, 13.5, 13.94, 13.94, 14.1, 14.1, 13.75, 14.31, 14.11, 14.53, 14.53, 14.38, 14.21, 13.99, 13.99, 13.99, 13.51, 12.52, 11.06, 9.91, 9.2, 8.16, 8.46, 9.49, 10.39, 11.38, 11.06, 11.06, 11.63, 11.96, 13.01, 13.38, 13.95, 13.95, 14.33, 14.52, 13.03, 11.38, 9.42, 7.85, 8.99, 11.33, 12.56, 12.07, 11.31, 10.4, 8.4, 8.4, 8.4, 8.8, 9.2, 9.27, 9.04, 8.3, 8.47, 7.41, 7.41, 8.12, 7.74, 7.06, 6.64, 7.4, 9.3, 9.09, 9.55, 7.68, 8.82, 12.86, 16.78, 20.12, 17.56, 18.25, 15.15, 14.94, 18.05, 20.09, 18.95, 16.26, 16.11, 17.47, 17.93, 17.05, 15.96, 14.74, 14.3, 13.86, 14.3, 14.29, 14.68, 15.03, 15.03, 14.0, 14.0, 13.28, 13.28, 13.11, 13.5, 13.5, 13.5, 13.5, 13.94, 13.67, 14.1, 14.1, 14.1, 13.89, 14.38, 14.53, 14.18, 14.18, 14.79, 14.61, 14.61, 14.17, 13.23, 12.02, 10.52, 9.91, 9.2, 8.16, 8.2, 9.66, 9.8, 10.39, 11.38, 11.38, 11.63, 12.22, 13.58, 13.58, 13.95, 14.52, 14.52, 14.18, 13.42, 12.17, 9.81, 9.03, 9.81, 11.38, 12.74, 11.97, 11.2, 9.2, 8.0, 8.0, 8.25, 8.67, 8.8, 9.2, 9.05, 8.93, 9.3, 8.47, 7.81, 7.15, 7.44, 7.15, 6.91, 8.15, 8.55, 9.46, 8.73, 8.34, 9.2, 11.99, 15.9, 20.02, 21.9, 16.54, 12.94, 14.31, 15.69, 18.02, 17.73, 16.38, 16.29, 17.38, 17.95, 17.62, 16.44, 15.18, 13.41, 12.96, 13.39, 13.78, 14.15, 14.59, 14.57, 14.0, 14.0, 13.28, 13.28, 13.25, 13.5, 13.5, 13.5, 13.5, 13.94, 13.57, 14.1, 14.1, 14.1, 13.77, 13.89, 14.18, 14.18, 14.18, 14.18, 14.18, 14.39, 13.97, 12.76, 11.86, 11.06, 9.62, 8.94, 8.72, 8.2, 9.21, 11.06, 9.8, 11.06, 12.03, 13.18, 13.18, 13.58, 14.13, 14.52, 14.52, 14.18, 14.18, 13.8, 12.27, 10.35, 9.42, 10.2, 11.38, 12.39, 12.39, 10.4, 8.4, 8.0, 8.14, 8.14, 8.55, 8.95, 8.8, 8.88, 8.93, 9.3, 8.93, 7.15, 7.81, 6.55, 7.2, 8.34, 8.54, 8.22, 9.04, 9.6, 9.36, 10.56, 11.62, 14.28, 18.65, 24.5, 17.98, 13.57, 14.44, 15.83, 16.74, 16.3, 15.83, 16.37, 16.79, 17.69, 17.6, 16.26, 15.47, 13.76, 13.32, 13.33, 13.69, 14.13, 14.03, 14.55, 13.96, 13.96, 13.25, 13.25, 13.25, 13.25, 13.7, 13.7, 13.5, 13.88, 13.88, 14.37, 14.1, 14.53, 13.77, 13.89, 13.59, 14.18, 13.81, 13.99, 14.18, 14.2, 13.54, 13.11, 11.86, 11.38, 9.62, 9.49, 9.49, 9.8, 9.8, 10.43, 11.03, 11.36, 12.82, 12.82, 13.8, 13.8, 13.8, 13.8, 14.18, 14.18, 14.18, 14.18, 13.03, 11.12, 9.97, 10.2, 10.99, 12.17, 12.79, 10.8, 8.8, 8.24, 8.24, 8.55, 8.95, 8.95, 9.03, 8.88, 8.55, 8.93, 9.46, 8.18, 7.44, 7.81, 6.91, 8.34, 9.1, 8.8, 8.4, 9.63, 10.32, 11.35, 12.07, 13.41, 17.46, 22.08, 19.92, 18.41, 15.9, 15.58, 16.03, 15.58, 16.46, 16.89, 16.78, 17.07, 17.42, 16.15, 15.66, 14.44, 13.67, 13.65, 13.23, 13.69, 14.13, 14.44, 14.13, 14.13, 13.07, 13.07, 13.25, 13.25, 13.7, 13.7, 13.44, 13.88, 14.31, 14.31, 14.81, 14.53, 14.19, 13.89, 13.56, 13.59, 13.77, 13.59, 13.59, 13.42, 13.1, 12.29, 11.86, 11.38, 11.06, 10.1, 10.1, 9.8, 10.43, 10.75, 11.36, 11.87, 12.45, 12.45, 13.42, 13.42, 13.8, 13.8, 14.18, 14.18, 14.18, 13.8, 13.59, 11.99, 10.8, 10.58, 11.39, 12.21, 12.21, 11.8, 9.42, 8.82, 8.43, 8.43, 8.63, 8.63, 8.67, 8.88, 8.88, 10.04, 9.81, 9.67, 7.81, 7.81, 8.18, 9.2, 7.96, 8.58, 8.48, 9.66, 10.43, 11.44, 12.66, 13.25, 15.12, 16.53, 19.17, 18.87, 19.37, 17.31, 14.99, 15.71, 16.1, 16.1, 15.51, 15.45, 15.54, 16.09, 15.18, 14.9, 14.13, 13.77, 13.83, 13.39, 13.84, 13.84, 14.13, 14.13, 13.25, 13.25, 13.25, 13.25, 13.7, 13.44, 13.88, 13.88, 14.31, 14.31, 14.75, 14.53, 14.19, 13.77, 13.56, 13.97, 13.59, 13.41, 13.03, 13.02, 12.3, 12.29, 12.36, 11.91, 11.06, 10.75, 10.1, 9.8, 10.43, 11.36, 11.87, 11.87, 11.52, 12.09, 12.09, 12.45, 13.42, 13.42, 13.39, 13.8, 14.39, 14.39, 13.99, 12.45, 11.21, 10.79, 11.21, 12.18, 12.21, 11.8, 9.97, 8.82, 8.43, 8.06, 8.06, 8.3, 8.67, 8.88, 8.88, 10.04, 10.43, 9.43, 8.55, 8.0, 8.4, 9.2, 7.95, 8.06, 8.48, 8.99, 10.46, 10.0, 13.02, 13.39, 14.42, 14.73, 16.12, 17.97, 19.67, 21.35, 17.61, 13.99, 13.35, 13.07, 13.84, 14.84, 15.9, 16.09, 15.93, 15.12, 14.67, 14.28, 13.86, 13.86, 13.86, 13.86, 13.84, 13.84, 12.81, 12.81, 13.23, 13.23, 13.67, 13.44, 13.88, 14.11, 14.55, 14.31, 14.75, 14.42, 14.19, 14.31, 13.56, 13.56, 13.97, 13.2, 12.37, 12.62, 12.3, 11.94, 12.36, 11.91, 11.58, 11.3, 10.75, 11.03, 11.03, 11.36, 11.87, 11.87, 11.52, 11.52, 12.09, 12.09, 12.09, 13.03, 13.42, 14.39, 14.39, 14.65, 13.59, 12.14, 9.55, 9.96, 10.79, 11.62, 11.6, 11.6, 10.35, 9.16, 8.42, 8.06, 8.3, 8.3, 8.67, 8.67, 9.42, 10.0, 10.8, 10.6, 9.2, 8.8, 8.4, 9.04, 7.53, 7.95, 8.48, 8.58, 9.2, 9.81, 12.62, 15.02, 16.76, 14.55, 14.1, 16.32, 18.84, 20.39, 17.48, 13.88, 14.49, 14.93, 14.79, 15.96, 16.87, 16.71, 16.39, 15.58, 14.73, 14.75, 14.3, 14.3, 14.28, 12.94, 12.94, 13.41, 12.79, 12.79, 13.23, 13.23, 13.67, 13.67, 14.11, 14.11, 14.55, 14.31, 14.75, 14.53, 14.19, 13.97, 14.11, 13.7, 13.56, 13.38, 12.5, 12.73, 12.3, 12.3, 12.4, 12.36, 11.58, 10.75, 10.97, 10.97, 11.03, 11.03, 11.87, 11.52, 11.52, 12.09, 12.09, 12.09, 12.27, 13.03, 13.59, 13.99, 14.53, 14.94, 13.7, 11.3, 9.13, 9.96, 10.79, 11.62, 11.72, 10.79, 10.41, 9.52, 8.79, 8.06, 8.3, 8.63, 9.03, 9.03, 9.81, 10.0, 10.8, 10.6, 10.0, 8.54, 8.0, 8.0, 8.0, 8.0, 8.34, 8.6, 8.55, 9.46, 11.99, 14.83, 18.04, 19.4, 14.3, 16.04, 18.24, 17.63, 14.78, 14.49, 15.99, 16.13, 16.4, 16.96, 17.65, 17.94, 17.29, 16.02, 15.2, 14.75, 14.73, 14.28, 12.41, 12.42, 12.33, 12.94, 12.79, 12.79, 12.79, 13.23, 13.67, 13.67, 14.11, 14.11, 14.55, 14.55, 14.81, 14.53, 14.19, 13.97, 13.77, 13.37, 13.37, 12.99, 12.65, 12.5, 12.73, 12.73, 12.4, 12.02, 11.58, 11.25, 10.92, 10.97, 11.17, 11.17, 11.52, 11.52, 12.09, 12.09, 11.72, 12.65, 12.27, 12.79, 13.59, 14.11, 14.53, 14.53, 13.7, 11.34, 9.8, 10.8, 12.39, 12.5, 11.9, 11.53, 10.79, 9.89, 9.2, 9.03, 8.63, 8.63, 9.03, 9.42, 9.81, 9.81, 10.8, 10.6, 8.4, 8.8, 8.4, 8.4, 7.37, 7.58, 8.6, 8.55, 8.55, 8.82, 11.03, 13.62, 15.59, 19.19, 22.18, 19.22, 15.96, 13.16, 13.27, 14.95, 16.55, 16.65, 16.65, 17.59, 18.26, 18.38, 17.73, 16.47, 15.2, 15.2, 14.19, 12.41, 12.24, 11.61, 11.76, 12.33, 12.79, 12.79, 12.79, 13.23, 13.23, 13.67, 13.67, 14.11, 14.11, 14.37, 14.37, 14.1, 14.31, 13.97, 13.7, 13.37, 13.02, 12.41, 12.27, 12.16, 12.5, 12.05, 12.05, 12.02, 11.58, 11.58, 11.42, 11.07, 11.17, 11.17, 11.17, 11.52, 12.09, 12.09, 11.72, 12.27, 12.27, 12.39, 12.79, 13.7, 13.7, 14.11, 13.28, 11.76, 10.92, 11.6, 13.03, 13.02, 12.27, 12.27, 11.88, 10.73, 9.2, 8.95, 8.95, 8.95, 9.03, 9.42, 9.42, 10.17, 11.14, 10.99, 11.2, 8.43, 8.05, 8.05, 7.37, 8.4, 7.58, 8.18, 8.55, 9.2, 10.18, 11.21, 12.82, 15.38, 18.97, 23.15, 21.85, 16.75, 13.87, 15.9, 18.38, 17.64, 16.68, 17.35, 17.94, 18.08, 17.29, 16.52, 15.2, 14.3, 12.42, 12.27, 11.79, 10.99, 11.84, 11.84, 12.47, 12.47, 12.92, 12.92, 13.23, 13.23, 13.7, 14.14, 13.75, 13.75, 13.89, 13.89, 13.89, 13.56, 13.56, 13.19, 12.81, 12.13, 12.13, 11.8, 12.5, 12.5, 12.05, 11.68, 11.25, 11.25, 11.42, 11.07, 11.57, 10.82, 10.82, 10.82, 11.72, 11.72, 11.72, 11.88, 11.88, 11.99, 12.87, 13.28, 13.28, 13.7, 13.27, 11.99, 11.21, 11.99, 12.65, 13.03, 12.27, 11.88, 11.99, 10.8, 8.8, 8.55, 8.95, 8.95, 9.77, 9.77, 10.17, 10.17, 10.58, 10.99, 10.4, 9.2, 8.43, 8.05, 8.05, 8.05, 7.28, 7.87, 8.8, 8.72, 10.05, 9.42, 10.59, 13.95, 16.45, 22.11, 23.28, 21.68, 20.27, 20.59, 20.35, 19.15, 16.47, 17.25, 17.18, 17.37, 16.52, 15.63, 14.75, 13.39, 12.3, 11.79, 10.8, -0.0, -0.0, -0.0, 12.47, 12.47, 12.92, 12.92, 13.23, 13.23, 13.5, 12.93, 12.74, 13.15, 12.79, 13.19, 13.19, 13.19, 13.19, 12.99, 12.56, 12.13, 12.13, 12.13, 12.5, 12.16, 12.16, 11.68, 11.68, 12.16, 11.8, 11.57, 11.21, 10.82, 10.47, 10.99, 10.99, 11.35, 11.72, 11.5, 11.99, 11.99, 12.45, 12.45, 13.27, 13.27, 12.85, 11.56, 10.79, 11.6, 12.5, 12.27, 11.99, 11.2, 10.8, 10.0, 8.4, 8.4, 8.8, 8.95, 9.77, 9.77, 10.17, 10.17, 10.58, 10.99, 10.8, 10.8, 8.82, 8.43, 8.05, 7.68, 7.64, 8.6, 8.72, 8.56, 8.8, 9.81, 10.04, 11.88, 15.12, 17.48, 19.21, 20.74, 21.63, 21.74, 23.78, 22.18, 18.73, 17.59, 17.47, 16.83, 15.63, 14.3, 13.41, 12.87, 11.66, 10.66, 12.07, -0.0, -0.0, -0.0, 12.48, 12.48, 12.92, 12.92, 13.23, 13.01, 13.15, 12.58, 12.6, 12.79, 12.42, 12.81, 12.81, 12.81, 12.56, 12.56, 12.56, 12.56, 12.56, 12.56, 12.94, 12.16, 12.16, 12.16, 12.16, 12.16, 12.27, 11.57, 11.21, 10.85, 10.99, 10.99, 10.99, 11.5, 11.5, 11.5, 11.6, 12.6, 12.6, 12.6, 12.85, 12.85, 12.42, 10.79, 10.38, 10.55, 11.72, 11.72, 11.99, 10.8, 10.0, 9.2, 8.0, 8.4, 8.8, 9.36, 9.36, 10.08, 10.5, 10.5, 10.17, 10.58, 10.8, 10.16, 10.35, 8.43, 8.05, 8.0, 7.96, 8.58, 9.04, 8.4, 8.55, 9.81, 10.43, 11.5, 13.11, 14.46, 15.27, 15.2, 17.9, 22.71, 24.14, 22.96, 19.91, 18.51, 18.08, 16.71, 14.67, 12.52, 12.96, 11.91, 11.55, 10.96, 11.62, 4.21, 4.21, 4.21, 12.48, 12.48, 12.92, 12.92, 12.79, 13.01, 12.38, 12.39, 12.6, 12.6, 12.42, 12.42, 12.81, 12.81, 12.56, 12.56, 12.99, 12.99, 12.99, 12.99, 12.56, 12.16, 12.16, 12.16, 12.65, 12.65, 12.27, 12.07, 11.69, 11.69, 11.31, 11.38, 11.12, 11.12, 11.6, 11.6, 12.18, 12.18, 12.94, 12.51, 12.42, 12.42, 12.42, 10.79, 10.21, 11.03, 11.33, 11.85, 11.33, 10.8, 10.0, 8.8, 8.0, 8.4, 8.8, 8.95, 9.66, 10.08, 10.5, 10.5, 10.17, 10.0, 10.8, 10.8, 9.3, 8.82, 8.05, 7.37, 8.4, 8.58, 8.58, 8.55, 9.2, 9.81, 11.27, 11.68, 12.45, 13.19, 12.89, 13.61, 15.88, 19.89, 23.24, 21.5, 20.79, 20.75, 18.02, 15.69, 12.77, 12.9, 12.04, 12.14, 12.07, 11.84, 9.64, 6.43, 6.43, 6.43, 12.48, 12.48, 12.93, 12.92, 13.07, 12.52, 11.99, 11.97, 12.2, 12.6, 12.79, 12.79, 13.19, 13.19, 12.99, 12.99, 12.99, 12.99, 12.99, 12.99, 12.27, 12.65, 12.65, 12.65, 12.65, 13.13, 12.74, 12.07, 11.69, 12.17, 11.77, 11.8, 11.8, 11.2, 11.62, 11.76, 11.76, 12.08, 12.51, 12.42, 12.42, 12.42, 12.42, 11.21, 10.21, 11.03, 11.44, 11.44, 11.44, 10.62, 9.96, 8.8, 8.0, 8.4, 8.8, 9.24, 9.66, 10.08, 10.5, 10.5, 9.96, 10.0, 10.4, 10.04, 9.67, 8.82, 7.67, 7.67, 8.8, 8.72, 8.6, 8.55, 9.42, 10.32, 10.73, 10.96, 11.6, 12.62, 12.27, 11.6, 14.42, 18.6, 21.38, 22.16, 22.01, 21.46, 17.47, 13.21, 12.39, 10.55, 9.88, 9.88, 9.08, 7.72, 6.15, 6.43, 6.43, 6.43, 12.48, 12.48, 12.93, 12.68, 12.39, 12.18, 11.97, 12.2, 12.2, 12.2, 12.6, 12.79, 12.79, 12.99, 12.99, 12.99, 12.99, 12.99, 12.99, 12.6, 12.18, 12.27, 12.65, 13.13, 13.13, 13.13, 12.74, 12.79, 12.39, 12.79, 12.21, 12.21, 11.8, 11.76, 11.76, 11.21, 11.34, 11.76, 11.99, 11.99, 11.99, 11.99, 11.99, 11.56, 10.21, 11.03, 11.44, 11.44, 11.03, 10.21, 9.8, 9.4, 8.72, 8.3, 8.72, 9.24, 9.66, 9.66, 9.96, 9.96, 9.96, 9.96, 10.16, 10.04, 9.3, 9.2, 8.05, 8.05, 8.43, 8.8, 9.4, 8.99, 9.77, 10.32, 10.4, 10.63, 11.02, 11.64, 11.64, 11.64, 12.37, 16.58, 17.49, 19.99, 22.47, 22.19, 17.67, 11.99, 10.41, 9.34, 8.97, 8.69, 7.72, 5.4, 5.8, 6.43, 6.43, 6.43, 12.48, 12.48, 12.68, 12.46, 12.1, 12.18, 12.2, 12.2, 12.2, 12.6, 12.6, 12.6, 12.99, 13.39, 13.39, 13.39, 12.99, 12.99, 12.99, 12.56, 12.56, 12.74, 13.13, 13.13, 13.59, 13.19, 13.19, 13.2, 12.79, 12.38, 12.21, 12.21, 11.8, 11.39, 11.62, 11.21, 11.21, 11.21, 11.21, 11.99, 11.99, 11.99, 11.99, 11.56, 10.62, 11.44, 11.85, 11.44, 10.62, 9.8, 9.4, 8.99, 9.13, 8.72, 8.72, 9.24, 9.13, 9.55, 9.55, 9.96, 9.96, 9.96, 9.77, 10.04, 9.3, 8.93, 8.0, 7.64, 8.8, 8.4, 8.99, 8.99, 9.2, 9.81, 10.04, 10.63, 11.02, 11.04, 10.98, 11.34, 10.98, 12.63, 15.17, 17.61, 22.47, 24.79, 12.79, 11.12, 11.28, 10.28, 9.27, 8.53, 6.72, 6.15, 6.65, 7.9, 7.9, 7.9, 12.41, 12.27, 12.71, 12.46, 12.1, 12.18, 12.58, 12.58, 12.58, 12.99, 12.99, 12.99, 13.39, 13.39, 13.39, 13.39, 12.99, 12.99, 12.99, 12.99, 12.99, 12.74, 13.59, 13.59, 13.19, 13.19, 13.62, 13.2, 12.79, 12.79, 12.21, 12.21, 11.8, 11.39, 11.39, 11.21, 11.21, 11.21, 11.21, 11.21, 11.56, 11.56, 11.56, 11.21, 11.03, 11.44, 11.85, 11.44, 10.62, 9.8, 9.4, 8.99, 9.13, 8.3, 8.72, 8.72, 9.13, 9.42, 9.42, 9.85, 9.55, 9.55, 9.38, 9.67, 9.66, 9.67, 8.37, 8.34, 8.72, 8.8, 8.8, 8.8, 8.58, 9.6, 9.81, 10.43, 10.41, 10.01, 10.73, 11.03, 11.03, 9.92, 11.91, 16.58, 25.06, 21.96, 15.04, 12.66, 11.83, 11.39, 10.65, 8.59, 7.25, 7.5, 7.63, 8.76, 8.76, 8.76, 12.27, 12.3, 12.09, 12.21, 12.1, 11.77, 12.18, 12.58, 12.58, 12.99, 12.99, 13.39, 13.39, 13.39, 13.39, 13.39, 13.39, 13.39, 13.39, 13.39, 13.39, 13.39, 13.19, 13.19, 13.19, 13.62, 13.62, 13.2, 12.79, 12.62, 12.21, 12.21, 11.8, 11.8, 11.39, 11.34, 11.21, 10.79, 10.79, 10.79, 11.21, 11.21, 11.21, 10.79, 11.03, 11.44, 11.85, 11.44, 11.03, 10.21, 9.4, 8.99, 8.99, 8.3, 8.72, 8.99, 8.99, 9.42, 9.42, 9.42, 9.85, 9.55, 9.38, 9.3, 9.66, 9.86, 8.93, 8.93, 8.72, 8.23, 8.23, 8.55, 8.6, 8.34, 9.6, 9.81, 10.04, 10.41, 10.81, 10.41, 10.79, 10.37, 11.21, 16.2, 28.97, 21.73, 16.87, 14.31, 11.62, 11.57, 9.92, 8.84, 8.72, 8.45, 9.06, 9.48, 9.48, 9.48, 12.3, 12.3, 12.09, 12.21, 12.1, 12.1, 12.52, 12.93, 12.58, 12.99, 12.99, 13.39, 13.39, 13.39, 13.39, 13.39, 13.39, 13.77, 13.77, 13.77, 13.77, 13.62, 13.62, 13.62, 13.62, 13.77, 13.2, 13.2, 12.62, 12.21, 12.21, 11.8, 11.8, 12.18, 11.76, 11.34, 11.21, 10.79, 10.79, 10.79, 10.79, 10.79, 10.79, 10.79, 10.62, 10.62, 11.03, 11.03, 11.03, 10.21, 9.8, 9.4, 8.99, 8.99, 8.56, 8.56, 8.99, 8.99, 8.99, 9.42, 9.42, 9.55, 8.99, 9.3, 9.86, 10.24, 10.8, 9.3, 8.37, 8.0, 7.87, 8.23, 8.93, 8.93, 8.55, 9.16, 9.4, 10.43, 10.04, 9.81, 9.76, 10.79, 12.18, 24.63, 29.41, 20.63, 17.2, 13.56, 11.97, 9.21, 8.4, 9.22, 9.53, 9.67, 10.65, 11.09, 11.09, 11.09, 12.3, 12.3, 12.09, 11.79, 12.1, 12.1, 12.52, 12.52, 12.93, 12.93, 13.35, 13.35, 13.77, 13.77, 13.77, 13.77, 13.77, 14.1, 14.1, 14.53, 14.1, 13.62, 13.62, 13.62, 13.62, 13.2, 13.2, 13.2, 12.62, 12.21, 12.21, 11.8, 12.18, 11.76, 11.76, 11.21, 11.21, 10.79, 10.79, 10.38, 10.79, 10.79, 10.79, 10.79, 10.21, 10.21, 10.62, 10.62, 10.62, 10.21, 9.8, 9.4, 9.33, 9.42, 8.99, 8.56, 8.56, 8.63, 9.06, 9.06, 8.72, 8.8, 8.99, 9.38, 9.77, 10.62, 11.03, 10.0, 8.55, 8.54, 8.0, 8.72, 8.93, 8.93, 8.82, 8.82, 8.73, 9.4, 9.81, 8.79, 9.16, 10.41, 20.0, 23.29, 28.84, 20.3, 16.92, 13.55, 9.48, 6.64, 7.98, 10.04, 10.43, 10.99, 11.44, 11.9, 11.9, 11.9, 12.14, 12.14, 12.09, 11.79, 11.79, 12.1, 12.52, 12.93, 12.93, 12.93, 12.93, 13.35, 13.77, 13.77, 13.89, 14.18, 14.1, 14.1, 14.1, 14.53, 14.19, 13.62, 13.62, 13.62, 13.2, 13.2, 13.2, 12.79, 12.79, 12.21, 12.6, 12.18, 12.18, 11.76, 11.76, 11.21, 11.21, 10.79, 10.79, 10.38, 10.38, 10.79, 10.79, 10.38, 10.38, 9.8, 9.8, 9.8, 9.8, 10.18, 10.18, 9.75, 9.33, 9.42, 9.42, 8.99, 8.63, 8.63, 8.63, 8.82, 8.72, 8.4, 8.6, 8.99, 9.77, 10.62, 10.62, 10.0, 9.6, 9.04, 8.54, 9.2, 8.99, 8.93, 8.93, 8.23, 8.82, 8.73, 9.04, 9.04, 9.08, 10.04, 17.59, 23.41, 27.89, 20.92, 15.41, 11.37, 5.15, 5.99, 8.99, 10.43, 11.6, 12.13, 11.9, 11.9, 11.9, 11.9, 12.09, 12.09, 12.09, 11.79, 11.79, 11.79, 12.21, 12.82, 12.82, 12.82, 13.25, 13.67, 13.67, 14.18, 14.18, 14.18, 14.1, 14.1, 14.1, 14.53, 14.19, 14.03, 14.03, 13.99, 13.57, 13.57, 13.57, 12.79, 12.79, 12.72, 12.18, 12.18, 11.76, 11.76, 11.62, 10.8, 10.8, 10.4, 10.0, 10.38, 10.38, 10.38, 10.38, 10.38, 9.96, 9.8, 9.8, 10.18, 9.75, 9.75, 9.75, 9.75, 9.85, 9.42, 9.42, 8.99, 9.06, 8.63, 8.4, 8.4, 8.4, 8.4, 8.8, 9.2, 9.96, 10.21, 10.6, 10.46, 9.2, 8.8, 9.45, 9.2, 9.6, 9.48, 9.3, 8.72, 8.8, 8.82, 9.05, 8.68, 9.04, 11.64, 14.39, 22.01, 26.37, 30.79, 15.69, 10.12, 6.64, 8.18, 10.75, 11.95, 12.62, 12.5, 12.27, 11.9, 11.9, 11.9, 12.09, 12.09, 12.04, 11.79, 12.21, 12.46, 12.46, 12.46, 12.82, 12.82, 13.55, 13.99, 13.99, 14.42, 14.42, 14.18, 14.1, 14.1, 14.1, 14.1, 14.19, 14.19, 14.19, 13.99, 13.57, 13.57, 13.57, 12.79, 12.38, 12.38, 12.18, 11.76, 11.76, 11.39, 10.8, 10.8, 10.8, 10.4, 10.4, 10.38, 10.38, 10.38, 10.38, 10.38, 9.96, 9.8, 9.8, 9.75, 9.75, 9.75, 9.75, 10.04, 10.08, 9.64, 9.64, 9.64, 9.24, 8.63, 8.63, 8.3, 8.0, 8.4, 8.8, 9.55, 9.55, 10.28, 10.18, 10.05, 9.63, 9.2, 9.2, 9.32, 9.32, 9.48, 9.1, 8.72, 8.8, 8.6, 8.82, 8.79, 10.0, 10.96, 13.28, 17.9, 23.91, 29.99, 25.54, 12.19, 9.92, 10.75, 11.76, 12.5, 13.02, 13.33, 12.27, 12.27, 12.27, 12.27, 12.09, 12.09, 12.04, 12.04, 12.46, 12.53, 12.46, 12.89, 13.11, 13.11, 13.55, 13.55, 13.99, 14.42, 14.42, 14.1, 14.1, 14.1, 14.1, 14.53, 14.53, 14.53, 14.53, 14.1, 13.57, 13.2, 12.79, 12.79, 12.38, 11.97, 11.8, 11.39, 11.39, 10.99, 10.8, 10.8, 10.4, 10.4, 10.4, 10.38, 10.38, 10.38, 10.38, 9.96, 9.96, 9.8, 9.8, 9.75, 9.75, 9.75, 10.04, 9.64, 10.08, 9.64, 9.64, 9.64, 9.21, 8.99, 8.56, 7.89, 8.0, 8.0, 8.4, 9.24, 9.13, 9.42, 9.75, 9.75, 9.63, 10.18, 9.6, 9.6, 8.93, 9.7, 9.1, 8.72, 8.34, 8.4, 8.6, 9.77, 10.6, 11.11, 13.39, 16.62, 21.44, 23.85, 23.28, 17.22, 12.02, 12.11, 12.65, 12.65, 13.16, 13.33, 12.65, 12.27, 12.27, 12.27, 12.09, 12.09, 12.04, 12.04, 12.53, 12.53, 12.53, 12.89, 13.11, 13.11, 13.55, 13.55, 13.99, 13.99, 14.1, 13.67, 13.67, 14.1, 14.1, 14.1, 14.53, 14.53, 14.53, 14.19, 13.2, 12.79, 12.79, 12.79, 12.38, 11.97, 11.8, 11.39, 11.39, 10.99, 10.99, 10.8, 10.8, 10.4, 10.4, 10.38, 10.38, 10.38, 9.96, 9.96, 9.96, 9.96, 9.85, 9.75, 9.75, 9.75, 10.04, 9.79, 9.79, 9.79, 9.79, 9.34, 9.21, 9.21, 8.99, 8.3, 7.89, 7.89, 8.4, 8.4, 8.82, 8.99, 9.42, 9.33, 9.21, 9.46, 9.04, 9.6, 9.6, 9.45, 8.93, 9.2, 9.4, 9.33, 9.64, 10.35, 10.84, 11.33, 12.96, 16.15, 20.09, 21.38, 20.83, 17.48, 16.01, 13.6, 13.58, 13.51, 13.33, 13.71, 13.33, 13.78, 13.78, 13.78, 12.09, 12.09, 12.09, 12.09, 12.09, 12.53, 12.53, 12.53, 13.15, 13.11, 13.55, 13.55, 13.99, 13.75, 13.67, 13.67, 13.67, 13.67, 13.77, 13.77, 13.77, 14.19, 14.19, 13.77, 13.35, 12.79, 12.79, 12.38, 12.38, 11.97, 11.8, 11.76, 11.34, 11.34, 10.99, 10.99, 10.99, 10.58, 10.58, 10.4, 10.0, 10.38, 10.38, 9.96, 9.96, 9.96, 9.85, 9.85, 9.75, 10.04, 9.79, 9.79, 9.79, 9.79, 9.79, 9.34, 9.21, 8.77, 8.99, 8.3, 8.4, 7.98, 7.98, 8.4, 8.4, 8.82, 8.99, 8.91, 8.79, 9.54, 9.46, 10.6, 10.6, 10.38, 9.04, 9.63, 10.04, 10.04, 10.04, 10.52, 10.84, 11.54, 12.96, 15.51, 19.17, 20.4, 18.39, 16.92, 15.28, 15.79, 13.76, 13.95, 14.29, 14.56, 14.79, 14.53, 14.53, 14.53, 12.09, 12.09, 12.53, 12.53, 12.53, 12.53, 12.53, 12.53, 12.53, 12.96, 12.96, 13.55, 13.75, 13.75, 13.67, 13.67, 13.67, 13.67, 13.67, 13.77, 13.77, 13.77, 13.77, 13.77, 13.35, 12.93, 12.93, 12.38, 12.38, 11.97, 12.3, 11.87, 11.34, 11.34, 11.34, 10.58, 10.58, 10.58, 10.58, 10.17, 10.17, 10.5, 10.5, 10.08, 10.35, 10.35, 10.28, 10.08, 10.08, 10.23, 9.83, 9.83, 9.83, 9.83, 9.39, 9.34, 9.34, 8.77, 8.56, 8.4, 8.4, 7.98, 7.98, 7.98, 8.4, 8.4, 8.56, 8.91, 8.91, 9.11, 9.54, 9.54, 9.21, 11.4, 9.89, 9.97, 10.04, 10.04, 9.75, 10.28, 10.78, 11.11, 12.21, 14.58, 17.85, 18.97, 17.8, 17.06, 16.01, 15.44, 14.13, 13.92, 14.67, 14.96, 15.2, 14.95, 14.95, 14.95, 12.09, 12.09, 12.53, 12.53, 12.53, 12.53, 12.53, 12.53, 12.53, 12.96, 12.96, 13.55, 13.75, 13.75, 13.67, 13.67, 13.67, 13.67, 13.67, 13.77, 13.77, 13.77, 13.77, 13.77, 13.35, 12.93, 12.93, 12.38, 12.38, 11.97, 12.3, 11.87, 11.34, 11.34, 11.34, 10.58, 10.58, 10.58, 10.58, 10.17, 10.17, 10.5, 10.5, 10.08, 10.35, 10.35, 10.28, 10.08, 10.08, 10.23, 9.83, 9.83, 9.83, 9.83, 9.39, 9.34, 9.34, 8.77, 8.56, 8.4, 8.4, 7.98, 7.98, 7.98, 8.4, 8.4, 8.56, 8.91, 8.91, 9.11, 9.54, 9.54, 9.21, 11.4, 9.89, 9.97, 10.04, 10.04, 9.75, 10.28, 10.78, 10.6, 11.37, 13.28, 15.37, 17.02, 17.39, 16.43, 16.22, 15.24, 14.3, 14.1, 15.09, 16.51, 15.81, 15.18, 15.18, 15.18]}, {"header": {"dx": 0.06612293990616946, "dy": 0.0552356325346848, "nx": 98, "ny": 59, "la1": 35.046912555036876, "la2": 31.78801023549047, "lo1": -121.43107172385933, "lo2": -114.95102361305473, "refTime": "2026041301", "parameterCategory": 1, "parameterNumber": 3}, "data": [7.59, 7.59, 8.18, 8.18, 8.18, 8.18, 7.59, 7.06, 7.06, 7.06, 7.44, 6.24, 6.63, 6.71, 6.17, 5.95, 5.95, 5.95, 6.5, 6.5, 6.76, 7.02, 7.42, 7.9, 8.22, 8.53, 8.53, 8.85, 9.27, 9.66, 9.67, 10.04, 10.04, 9.42, 7.06, 4.66, 3.82, 8.0, 0.0, -5.69, -8.49, 0.0, 0.0, 5.8, 6.4, 7.49, 9.67, 12.63, 13.51, 12.29, 12.3, 11.88, 11.5, 11.06, 11.06, 10.75, 11.06, 10.61, 10.01, 10.01, 9.24, 9.24, 8.45, 7.38, 7.78, 9.02, 11.68, 12.76, 12.65, 12.65, 11.5, 11.06, 10.4, 10.49, 9.67, 7.6, 5.99, 5.32, 4.85, 4.04, 3.34, 2.34, 1.76, 4.24, 10.73, 13.15, 12.39, 11.64, 11.39, 10.98, 10.65, 10.22, 10.22, 9.67, 9.67, 9.53, 9.7, 9.89, 7.36, 7.59, 8.18, 8.18, 8.18, 8.18, 7.82, 7.28, 7.06, 7.06, 7.2, 7.78, 6.97, 6.44, 7.44, 6.5, 6.17, 6.76, 6.5, 6.31, 8.53, 8.53, 9.82, 9.5, 8.31, 8.31, 8.31, 9.0, 9.67, 10.8, 11.75, 11.75, 11.6, 10.18, 8.34, 7.28, 7.63, 7.2, 3.8, 6.32, 9.83, 9.67, 9.17, 9.42, 11.06, 12.03, 13.91, 14.42, 12.97, 11.6, 11.17, 11.17, 10.75, 10.04, 10.43, 10.75, 10.75, 10.34, 9.6, 10.01, 9.24, 8.45, 7.9, 7.78, 9.17, 11.8, 12.4, 12.73, 12.3, 11.83, 11.22, 10.4, 9.81, 8.7, 8.74, 7.4, 5.36, 5.32, 4.85, 4.04, 3.34, 2.34, 1.76, 4.24, 10.73, 13.15, 12.39, 11.64, 11.39, 10.98, 10.65, 10.22, 10.22, 9.67, 9.67, 9.53, 9.7, 9.89, 7.36, 7.59, 8.18, 8.18, 8.18, 8.18, 7.82, 7.82, 7.28, 6.85, 5.99, 5.9, 6.97, 6.97, 6.59, 5.95, 6.2, 6.2, 7.36, 8.85, 8.82, 9.46, 10.09, 10.01, 10.94, 9.0, 9.04, 9.05, 9.36, 10.68, 12.3, 13.07, 12.98, 12.04, 9.24, 8.06, 7.63, 8.0, 9.11, 9.75, 10.4, 11.88, 13.18, 13.84, 14.55, 14.88, 15.45, 14.08, 10.54, 10.87, 11.17, 10.43, 10.01, 10.43, 10.48, 10.75, 10.75, 9.89, 9.6, 9.53, 9.24, 8.18, 8.3, 9.92, 11.8, 12.79, 12.73, 12.3, 12.22, 10.92, 10.68, 10.36, 8.91, 7.76, 7.78, 6.13, 5.21, 4.95, 3.64, 3.36, 3.23, 2.61, 5.43, 11.6, 12.72, 13.23, 11.99, 12.03, 11.39, 10.65, 9.8, 10.12, 9.06, 9.36, 8.95, 8.95, 9.48, 10.24, 5.92, 6.4, 8.18, 8.18, 8.18, 8.18, 7.82, 7.82, 6.1, 6.64, 5.78, 6.15, 6.4, 6.71, 6.71, 6.2, 6.45, 7.24, 7.95, 7.9, 8.82, 8.93, 9.3, 8.69, 9.34, 10.94, 10.04, 9.03, 9.06, 10.14, 11.36, 12.09, 12.58, 12.94, 11.56, 9.63, 9.04, 9.3, 9.86, 12.45, 14.65, 16.79, 16.6, 15.25, 13.49, 12.24, 11.25, 10.22, 10.54, 10.12, 9.8, 10.12, 9.8, 10.12, 10.51, 9.7, 10.01, 10.01, 9.11, 9.24, 8.45, 8.3, 10.25, 12.5, 12.79, 13.03, 12.62, 12.14, 11.38, 10.25, 10.49, 9.92, 8.9, 6.94, 6.27, 4.67, 3.28, 3.25, 3.58, 3.46, 2.44, 4.48, 9.67, 13.75, 14.08, 13.52, 13.02, 11.76, 11.09, 10.25, 11.06, 9.44, 8.59, 8.59, 8.66, 9.06, 9.89, 10.63, 5.92, 6.4, 8.18, 8.18, 8.18, 8.18, 6.8, 6.8, 6.1, 5.73, 5.78, 6.15, 6.16, 6.5, 5.69, 6.97, 7.14, 7.24, 8.53, 10.04, 10.87, 9.7, 8.93, 8.93, 8.93, 10.24, 10.94, 10.62, 10.84, 9.79, 10.25, 10.14, 11.28, 11.28, 10.0, 10.0, 9.48, 10.55, 13.02, 17.02, 17.74, 15.59, 13.38, 11.8, 11.09, 10.65, 10.22, 9.8, 9.8, 9.36, 9.06, 9.48, 9.48, 9.8, 10.51, 9.7, 9.7, 9.24, 9.24, 8.45, 8.72, 10.38, 12.94, 13.81, 13.64, 13.02, 12.3, 12.22, 12.12, 11.7, 11.06, 11.88, 11.43, 9.84, 5.81, 4.13, 2.63, 2.62, 3.22, 2.72, 3.68, 9.08, 12.93, 14.51, 14.08, 13.77, 12.79, 11.69, 10.25, 11.06, 9.73, 8.87, 7.78, 8.3, 8.76, 9.89, 10.24, 10.63, 6.4, 6.4, 6.95, 8.18, 7.16, 7.16, 6.8, 6.6, 6.1, 5.73, 5.78, 5.29, 5.92, 6.24, 5.54, 6.5, 7.56, 7.85, 9.16, 10.61, 10.94, 10.8, 11.64, 11.26, 11.09, 11.09, 10.88, 10.46, 10.91, 10.84, 9.21, 9.16, 9.6, 11.45, 11.72, 11.5, 10.62, 9.21, 13.12, 17.16, 15.53, 13.07, 11.99, 12.42, 11.76, 11.95, 11.17, 10.43, 9.36, 9.48, 9.17, 9.48, 10.22, 9.8, 10.12, 9.7, 9.24, 8.72, 8.72, 8.59, 9.64, 12.36, 14.18, 13.99, 14.03, 13.63, 12.3, 11.95, 11.79, 11.7, 10.83, 11.56, 11.93, 10.91, 8.4, 5.26, 2.92, 3.04, 3.18, 3.18, 8.15, 13.62, 15.27, 15.07, 14.11, 13.77, 12.5, 10.87, 10.57, 9.73, 9.16, 8.45, 8.59, 8.76, 9.89, 9.89, 10.63, 10.63, 6.4, 6.4, 6.95, 7.16, 7.16, 7.16, 6.6, 6.6, 5.92, 5.73, 5.78, 5.06, 5.69, 6.24, 7.54, 7.15, 7.85, 8.85, 9.5, 10.61, 10.99, 12.79, 12.9, 14.53, 14.23, 13.56, 14.61, 13.88, 12.14, 9.8, 10.32, 9.16, 9.6, 9.54, 10.62, 12.39, 11.29, 9.8, 10.65, 12.72, 14.19, 12.66, 12.66, 12.5, 12.45, 11.26, 11.79, 11.06, 9.8, 10.36, 10.36, 9.89, 9.8, 9.36, 9.36, 8.45, 7.89, 8.05, 8.05, 9.17, 10.94, 13.47, 14.65, 14.56, 14.26, 13.23, 12.57, 11.17, 10.75, 10.18, 9.52, 8.99, 9.12, 8.74, 7.18, 5.71, 4.34, 2.24, 4.9, 9.8, 12.65, 14.79, 15.77, 14.99, 14.18, 12.27, 10.87, 10.57, 10.02, 8.31, 7.79, 8.56, 9.67, 10.22, 9.89, 9.96, 10.3, 10.63, 6.2, 6.4, 6.95, 6.95, 7.16, 7.16, 5.48, 5.48, 6.4, 5.55, 5.0, 5.06, 5.98, 7.15, 7.82, 7.9, 7.85, 9.17, 9.84, 10.91, 10.3, 11.16, 11.99, 14.38, 13.59, 13.59, 14.84, 15.27, 13.19, 11.99, 11.45, 11.95, 12.39, 11.87, 10.21, 10.61, 9.84, 7.36, 8.22, 10.4, 12.46, 12.74, 13.97, 13.82, 12.22, 10.43, 10.43, 11.06, 10.84, 10.97, 9.17, 9.06, 9.36, 9.36, 8.87, 7.44, 7.19, 7.62, 8.32, 9.88, 12.3, 13.82, 14.23, 14.22, 13.26, 12.5, 11.79, 10.61, 9.27, 7.98, 6.94, 5.64, 4.81, 4.03, 3.16, 2.8, 3.32, 5.63, 9.76, 13.71, 14.0, 14.81, 15.37, 14.03, 12.65, 11.25, 9.7, 8.4, 7.89, 7.63, 7.54, 8.37, 10.22, 10.58, 10.24, 9.89, 10.3, 10.65, 6.2, 6.4, 6.95, 6.95, 7.16, 5.99, 5.48, 5.48, 5.31, 5.8, 5.2, 5.64, 6.67, 8.3, 8.01, 8.01, 8.3, 9.48, 10.3, 11.16, 10.73, 10.73, 11.88, 13.28, 11.6, 8.94, 8.8, 12.87, 14.53, 13.28, 13.67, 14.99, 14.42, 12.39, 10.19, 8.22, 6.71, 7.9, 7.27, 8.93, 11.26, 12.81, 12.0, 8.85, 8.73, 8.67, 9.71, 10.1, 10.75, 10.75, 10.75, 8.76, 8.87, 8.31, 7.69, 6.53, 6.21, 7.41, 8.75, 12.25, 13.5, 13.82, 13.7, 13.64, 12.62, 11.79, 10.33, 9.35, 7.0, 5.48, 3.58, 2.72, 1.01, 0.0, 0.0, 0.0, 2.89, 11.1, 13.78, 14.26, 14.66, 14.64, 15.03, 13.63, 11.95, 9.8, 8.18, 6.79, 5.89, 6.77, 7.63, 9.17, 10.55, 11.26, 11.26, 10.54, 10.22, 10.65, 6.2, 6.2, 6.95, 6.95, 5.99, 5.99, 5.48, 5.48, 5.31, 4.81, 5.6, 5.8, 5.86, 6.51, 6.88, 7.44, 7.93, 9.22, 10.43, 9.48, 10.37, 10.37, 12.39, 12.79, 11.44, 9.3, 8.4, 10.41, 14.31, 13.28, 13.19, 14.79, 12.52, 10.82, 9.42, 6.98, 6.44, 6.64, 8.22, 9.96, 10.23, 10.23, 8.22, 7.14, 7.14, 7.54, 7.82, 8.21, 10.12, 10.75, 10.01, 9.24, 8.87, 8.49, 6.96, 6.44, 6.16, 7.44, 10.09, 12.94, 14.03, 14.51, 15.02, 13.64, 12.98, 10.95, 9.12, 7.74, 4.52, 1.96, 0.99, 0.0, 0.0, 0.0, 0.0, 0.0, 10.75, 14.19, 14.56, 14.13, 14.47, 14.08, 14.61, 13.26, 10.75, 8.95, 7.01, 5.89, 5.68, 6.87, 8.16, 10.28, 10.65, 11.33, 10.75, 10.43, 10.22, 10.22, 6.2, 6.2, 5.31, 5.48, 5.48, 5.48, 5.48, 5.48, 5.31, 4.98, 4.81, 6.2, 6.73, 6.73, 5.63, 5.63, 6.16, 8.29, 7.6, 9.0, 9.67, 10.89, 10.61, 9.22, 8.85, 9.17, 8.23, 9.97, 12.3, 11.53, 9.17, 7.78, 7.54, 6.2, 5.54, 5.4, 7.26, 7.26, 8.53, 9.8, 10.69, 9.48, 7.65, 5.77, 5.54, 5.95, 7.42, 7.9, 8.53, 9.17, 10.84, 11.83, 11.83, 11.68, 10.92, 11.3, 12.0, 11.5, 12.07, 13.86, 16.29, 16.2, 14.88, 14.03, 12.92, 12.2, 10.86, 9.62, 6.02, 0.0, -1.55, 0.0, 0.0, 0.0, 0.0, 6.2, 13.57, 14.94, 14.81, 14.73, 13.46, 12.7, 11.31, 11.38, 10.01, 8.18, 6.77, 5.99, 5.77, 7.15, 9.27, 10.3, 10.25, 10.12, 10.43, 9.67, 10.12, 10.54, 5.15, 5.15, 5.31, 5.48, 5.48, 4.24, 4.24, 4.24, 4.11, 4.98, 4.98, 5.15, 6.6, 6.4, 4.98, 3.6, 4.65, 5.48, 7.2, 8.25, 8.03, 8.53, 8.29, 8.28, 8.05, 7.78, 7.51, 6.28, 6.2, 3.25, 3.39, 4.32, 5.98, 3.87, 4.23, 3.61, 4.99, 7.24, 8.24, 9.48, 9.13, 7.44, 5.86, 5.54, 5.7, 6.64, 9.09, 9.86, 10.24, 9.66, 11.03, 13.1, 14.78, 16.39, 16.18, 15.19, 14.79, 13.89, 12.79, 14.07, 17.41, 17.56, 14.97, 13.42, 13.76, 15.62, 17.45, 17.45, 15.14, 14.88, -15.65, 0.0, 0.0, 0.0, 4.81, 12.39, 14.53, 14.79, 13.88, 12.78, 12.78, 12.01, 10.54, 10.18, 8.56, 7.38, 6.09, 5.51, 6.2, 7.82, 8.53, 8.85, 9.17, 8.49, 9.32, 10.12, 9.8, 10.22, 5.15, 5.15, 5.31, 4.24, 4.24, 4.24, 4.24, 4.11, 4.11, 3.98, 5.15, 5.31, 5.48, 5.64, 5.81, 4.0, 5.31, 6.0, 5.8, 6.9, 7.44, 7.44, 6.51, 5.45, 5.45, 5.45, 6.0, 5.28, 4.48, 0.0, 0.0, 4.32, 3.68, 3.53, 4.05, 3.45, 5.45, 7.36, 8.22, 7.95, 6.94, 6.08, 5.86, 5.45, 6.14, 8.8, 10.05, 10.8, 10.8, 9.46, 10.04, 11.02, 12.87, 14.75, 15.68, 16.09, 15.83, 13.55, 11.28, 12.58, 16.09, 16.3, 13.99, 12.79, 15.56, 16.56, 19.99, 23.76, 22.43, 21.08, 18.2, 0.0, 0.0, 5.6, 11.37, 15.02, 15.59, 14.73, 12.74, 11.31, 9.95, 9.89, 8.85, 8.72, 8.84, 8.14, 7.21, 6.31, 6.57, 7.52, 7.82, 7.82, 7.64, 8.97, 9.8, 9.8, 9.8, 10.22, 5.15, 5.15, 3.98, 4.11, 4.24, 4.11, 4.11, 3.76, 4.11, 4.11, 5.31, 5.31, 5.48, 5.64, 4.23, 4.23, 5.5, 6.8, 7.59, 8.2, 8.2, 8.2, 7.59, 7.0, 7.6, 7.6, 6.4, 5.63, 4.38, 2.54, 2.28, 2.28, 2.93, 3.39, 4.6, 5.46, 6.11, 7.27, 7.27, 7.06, 6.45, 5.92, 5.75, 6.98, 8.18, 9.04, 9.13, 10.27, 9.7, 10.09, 9.7, 10.68, 12.89, 12.74, 10.79, 9.53, 9.6, 12.64, 12.9, 12.03, 13.83, 14.51, 13.43, 14.28, 14.51, 14.75, 16.71, 18.84, 19.93, 19.37, 15.6, 12.56, 14.75, 11.91, 13.8, 15.2, 15.39, 14.22, 12.64, 11.19, 9.22, 8.05, 7.34, 7.01, 7.85, 7.49, 7.5, 7.44, 7.36, 7.82, 6.71, 7.36, 7.93, 8.97, 8.72, 9.92, 10.25, 10.54, 3.98, 3.98, 3.98, 4.11, 4.11, 2.81, 2.56, 2.56, 4.11, 4.11, 4.11, 4.24, 4.24, 4.0, 4.23, 4.35, 5.65, 8.51, 9.23, 8.97, 8.94, 8.16, 8.97, 9.88, 8.93, 9.17, 8.53, 9.09, 8.43, 7.59, 5.15, 5.6, 5.4, 6.44, 6.17, 7.68, 7.9, 7.06, 7.15, 6.17, 6.44, 6.45, 6.7, 8.38, 7.81, 9.04, 9.04, 9.45, 9.32, 8.93, 8.93, 8.55, 8.43, 6.79, 5.36, 3.49, 3.25, 8.41, 13.97, 14.25, 12.07, 11.84, 12.42, 12.94, 13.02, 13.44, 15.38, 14.79, 13.74, 14.22, 14.95, 12.12, 12.0, 13.59, 14.58, 14.64, 14.22, 12.64, 10.86, 9.67, 7.93, 6.52, 5.29, 4.65, 5.06, 6.88, 7.26, 8.49, 8.3, 8.21, 7.36, 7.1, 8.67, 9.17, 9.48, 10.25, 10.12, 10.12, 3.98, 3.98, 3.98, 4.11, 2.81, 2.81, 2.56, 2.56, 2.81, 4.11, 4.24, 4.24, 3.88, 2.72, 4.12, 5.5, 6.84, 8.74, 10.61, 10.33, 9.47, 9.47, 10.69, 12.36, 12.36, 11.7, 12.45, 12.11, 11.88, 11.54, 10.75, 9.89, 9.13, 7.26, 6.42, 6.32, 6.95, 6.95, 7.15, 5.95, 6.69, 7.59, 7.59, 7.56, 8.18, 8.18, 8.8, 8.8, 8.55, 7.68, 7.27, 6.42, 6.14, 4.6, 3.15, 3.15, 3.32, 8.93, 12.25, 12.42, 11.11, 10.6, 10.6, 10.7, 10.6, 11.45, 11.68, 11.53, 12.92, 13.91, 12.46, 11.53, 13.84, 15.2, 14.81, 14.22, 13.28, 10.31, 9.23, 8.03, 7.53, 6.81, 6.18, 5.36, 5.2, 6.21, 7.69, 8.87, 9.16, 9.16, 8.31, 8.85, 9.48, 9.89, 9.56, 9.89, 10.22, 10.22, 3.98, 3.98, 2.81, 2.72, 2.72, 2.56, 2.56, 2.89, 2.81, 4.11, 4.24, 3.88, 2.72, 2.72, 4.12, 5.35, 7.49, 9.49, 11.36, 11.36, 10.47, 10.77, 12.57, 13.58, 13.58, 13.18, 13.8, 13.8, 13.8, 13.55, 13.26, 12.63, 11.96, 10.12, 6.32, 6.32, 6.64, 7.59, 6.42, 6.42, 7.59, 6.32, 7.56, 6.79, 7.9, 8.55, 8.55, 8.03, 7.27, 6.14, 6.14, 4.83, 4.83, 4.83, 4.2, 3.7, 4.88, 7.9, 9.48, 10.55, 10.55, 9.2, 9.04, 9.04, 9.04, 8.58, 10.46, 10.61, 12.45, 13.91, 11.37, 9.88, 12.78, 14.57, 14.06, 12.64, 11.53, 10.17, 8.9, 7.23, 7.2, 7.0, 7.43, 7.44, 7.43, 7.18, 6.72, 8.72, 8.99, 8.99, 8.59, 8.85, 9.59, 10.22, 10.25, 9.56, 9.48, 9.48, 2.72, 2.72, 2.81, 2.81, 2.72, 2.72, 2.81, 2.81, 2.89, 2.64, 3.88, 4.0, 3.69, 4.0, 4.0, 5.19, 8.05, 10.69, 11.7, 11.06, 10.77, 12.57, 13.99, 13.59, 13.99, 14.13, 15.27, 14.79, 14.52, 15.06, 14.51, 13.84, 13.23, 11.38, 8.85, 6.18, 6.32, 6.42, 6.7, 6.42, 6.14, 6.95, 6.95, 6.95, 7.27, 7.9, 7.27, 7.27, 6.14, 5.46, 5.46, 5.06, 5.9, 5.9, 5.06, 5.46, 5.72, 6.69, 7.9, 9.3, 8.94, 9.1, 8.93, 8.18, 8.4, 8.4, 9.4, 10.09, 8.82, 8.4, 7.88, 8.8, 12.69, 13.14, 10.68, 9.0, 8.68, 8.2, 8.04, 6.63, 7.0, 9.17, 9.47, 8.87, 8.49, 7.19, 7.44, 7.89, 8.4, 9.54, 10.57, 10.25, 9.59, 10.22, 9.8, 9.8, 8.76, 8.76, 2.48, 2.48, 2.72, 2.81, 2.72, 2.72, 2.81, 2.56, 2.64, 2.64, 2.64, 3.69, 3.79, 3.79, 5.19, 7.6, 8.18, 10.39, 11.06, 10.75, 11.69, 14.13, 14.44, 15.11, 13.89, 15.2, 12.62, 14.85, 15.24, 13.58, 14.1, 13.84, 13.84, 12.33, 11.06, 7.93, 5.78, 5.04, 5.21, 5.0, 5.45, 5.45, 5.7, 5.46, 6.58, 6.58, 6.3, 5.46, 5.46, 5.46, 5.46, 6.14, 5.9, 5.9, 5.06, 5.7, 5.46, 6.24, 7.65, 8.75, 8.94, 8.73, 8.37, 7.15, 7.96, 8.99, 8.99, 8.58, 5.7, 3.73, 4.73, 7.52, 10.41, 9.83, 6.44, 2.87, 1.78, 2.58, 4.44, 6.28, 8.11, 9.17, 8.43, 7.25, 7.26, 6.15, 5.99, 5.48, 7.97, 8.83, 11.22, 11.06, 10.25, 9.89, 10.87, 9.36, 8.59, 8.59, 2.48, 2.48, 2.48, 2.48, 1.25, 1.25, 1.3, 1.3, 1.34, 2.64, 2.43, 3.69, 3.79, 3.79, 5.35, 5.64, 7.59, 9.06, 10.18, 11.54, 12.9, 14.39, 14.39, 15.59, 14.79, 14.79, 14.46, 13.58, 14.33, 13.74, 13.61, 13.61, 12.96, 12.96, 11.36, 9.62, 7.62, 6.45, 5.18, 3.8, 4.0, 4.45, 4.73, 4.73, 4.5, 5.54, 5.7, 5.7, 5.46, 4.2, 5.21, 5.86, 6.64, 5.9, 4.96, 4.66, 4.23, 5.06, 6.15, 8.22, 7.81, 7.9, 7.56, 7.56, 8.21, 8.8, 8.55, 7.06, 4.81, 2.72, 3.3, 4.12, 4.47, 2.43, 0.0, -2.95, -4.8, -3.9, 4.03, 7.0, 7.54, 7.0, 6.18, 5.62, 5.11, 4.81, 4.38, 4.52, 6.6, 8.4, 10.57, 11.38, 10.43, 10.12, 9.7, 9.53, 8.31, 8.31, 2.48, 2.48, 1.25, 1.25, 1.25, 2.48, 2.28, 1.1, 2.43, 2.5, 2.43, 3.69, 3.79, 3.79, 4.95, 5.35, 6.1, 7.59, 7.96, 9.89, 12.9, 13.06, 13.76, 13.39, 14.57, 14.91, 13.18, 13.92, 14.28, 14.65, 13.96, 13.61, 12.33, 12.33, 11.36, 9.73, 8.68, 7.19, 5.86, 5.18, 4.73, 4.96, 4.96, 4.96, 4.73, 5.32, 4.4, 4.4, 4.6, 4.4, 4.0, 5.86, 6.64, 6.95, 6.17, 4.88, 4.18, 4.6, 6.24, 6.58, 7.27, 7.56, 7.56, 8.37, 8.18, 8.93, 9.08, 7.72, 7.36, 5.43, 4.91, 5.01, 2.25, -5.53, -7.4, -7.12, -8.56, -4.47, 2.65, 7.2, 7.74, 6.85, 6.09, 5.31, 3.68, 3.68, 4.34, 5.99, 7.97, 8.58, 9.34, 10.27, 10.57, 9.7, 8.56, 8.46, 7.58, 7.58, 1.25, 1.25, 1.25, 1.25, 2.48, 2.28, 2.11, 2.18, 3.32, 3.42, 3.69, 3.69, 3.42, 3.52, 4.95, 5.35, 6.29, 7.06, 7.92, 10.33, 11.29, 10.99, 11.38, 13.18, 14.33, 15.45, 14.71, 13.95, 13.95, 13.92, 13.61, 13.61, 12.33, 12.33, 10.61, 9.99, 9.2, 6.98, 6.31, 5.63, 5.18, 4.96, 4.73, 4.96, 5.18, 5.28, 4.8, 4.4, 4.2, 4.2, 5.59, 5.86, 6.14, 6.95, 6.95, 5.29, 6.44, 6.2, 5.95, 6.14, 6.32, 7.74, 8.12, 8.55, 8.47, 9.53, 9.42, 8.75, 8.64, 10.09, 9.8, 12.43, 12.61, -7.47, -8.53, -2.35, -2.22, 0.0, 4.23, 5.81, 6.3, 6.31, 5.83, 5.49, 4.18, 4.21, 6.6, 8.93, 9.54, 8.58, 9.62, 9.53, 9.39, 8.72, 7.69, 6.79, 6.73, 6.73, 1.25, 1.25, 1.25, 2.28, 2.28, 2.28, 3.22, 3.0, 3.09, 4.47, 4.81, 4.47, 4.6, 4.6, 4.95, 6.47, 5.85, 7.43, 8.43, 9.73, 9.99, 10.05, 10.75, 11.87, 14.29, 15.06, 15.45, 15.06, 14.33, 13.58, 12.92, 12.92, 11.7, 11.7, 10.33, 9.73, 8.64, 7.43, 6.53, 5.86, 5.41, 5.18, 4.96, 4.73, 4.96, 5.28, 5.2, 4.83, 4.6, 5.86, 5.86, 6.14, 6.14, 6.14, 6.42, 6.7, 7.9, 7.72, 6.2, 4.6, 7.33, 8.72, 9.16, 9.16, 9.17, 9.36, 9.76, 8.94, 9.3, 9.81, 10.43, 13.28, 10.0, -7.6, 11.18, 5.6, 3.47, 1.27, 1.34, 1.16, 1.68, 2.57, 3.39, 4.67, 5.41, 7.21, 8.85, 9.73, 9.35, 8.91, 8.31, 8.45, 7.93, 7.58, 6.57, 6.0, 4.94, 4.94, 0.0, 0.0, 1.15, 1.15, 2.28, 3.12, 3.12, 3.0, 4.34, 4.47, 4.47, 4.6, 4.3, 4.6, 4.95, 6.02, 7.0, 6.99, 8.68, 9.66, 10.47, 9.99, 10.77, 11.93, 13.13, 14.56, 15.06, 15.06, 14.71, 14.33, 12.57, 12.57, 11.38, 11.38, 10.05, 9.47, 8.64, 7.66, 6.76, 5.86, 5.18, 4.96, 4.6, 4.6, 4.0, 4.8, 5.95, 5.46, 6.14, 5.46, 5.7, 5.46, 5.46, 5.59, 6.14, 7.27, 7.27, 7.9, 7.15, 6.44, 7.89, 8.22, 9.3, 9.42, 9.02, 10.36, 10.23, 10.55, 8.58, 7.27, 5.7, 6.99, 9.11, 9.37, 10.66, 6.31, 2.65, 0.0, -1.47, -3.28, -2.97, -0.79, 0.82, 3.58, 6.16, 8.65, 8.99, 8.83, 9.09, 9.35, 8.58, 7.25, 6.36, 5.71, 4.94, 4.31, 3.53, 3.53, 1.15, 1.15, 1.15, 2.28, 2.28, 3.12, 3.12, 3.22, 4.34, 4.47, 4.47, 4.18, 4.3, 4.6, 4.95, 6.02, 7.0, 7.21, 8.43, 9.66, 9.66, 10.19, 10.76, 12.29, 13.51, 13.78, 14.67, 15.06, 14.71, 14.33, 13.26, 12.92, 11.63, 10.47, 10.77, 9.47, 8.64, 7.88, 7.21, 6.08, 4.92, 4.71, 4.4, 4.6, 4.71, 5.04, 4.8, 4.8, 4.8, 4.5, 4.28, 4.05, 4.0, 4.6, 4.6, 6.95, 7.27, 5.82, 7.27, 7.56, 8.43, 7.81, 7.81, 8.22, 9.02, 11.35, 10.25, 10.25, 8.69, 3.25, 1.7, 3.22, 9.33, 13.89, 10.96, 7.22, 3.96, 0.0, -3.2, -5.86, -5.67, -3.42, 0.0, 5.11, 7.97, 8.99, 7.74, 7.74, 8.57, 8.61, 8.53, 6.79, 5.2, 4.71, 3.53, 3.53, 2.93, 2.93, 1.06, 1.06, 2.28, 2.28, 2.28, 3.12, 3.12, 3.22, 4.34, 4.34, 4.18, 4.18, 5.26, 5.26, 4.6, 6.02, 7.0, 7.88, 8.68, 9.39, 9.39, 9.66, 10.19, 12.01, 13.76, 14.17, 13.9, 14.67, 14.1, 14.1, 13.74, 13.26, 12.29, 11.06, 10.05, 9.47, 8.64, 8.64, 7.49, 6.42, 5.35, 4.92, 4.71, 4.71, 5.52, 5.9, 5.64, 4.28, 4.28, 4.5, 3.61, 3.61, 3.87, 4.4, 5.06, 5.9, 5.9, 6.32, 7.21, 8.37, 7.9, 7.9, 7.13, 8.58, 9.17, 10.25, 9.89, 9.77, 6.59, 3.82, 3.39, 4.74, 7.27, 11.52, 15.82, 13.58, 10.53, 6.59, 0.0, -6.44, -6.0, 0.0, 4.37, 7.93, 9.11, 8.68, 8.18, 7.36, 7.13, 7.03, 7.11, 6.6, 5.02, 3.66, 2.76, 3.11, 2.82, 2.82, 2.11, 2.11, 2.11, 2.28, 2.11, 3.12, 3.12, 3.12, 4.21, 4.34, 4.18, 5.11, 5.26, 5.11, 5.26, 5.62, 6.02, 7.0, 7.88, 8.68, 9.39, 9.39, 9.66, 11.13, 13.23, 13.76, 13.9, 13.38, 13.74, 13.74, 13.74, 12.63, 11.36, 10.61, 9.73, 8.88, 8.88, 8.88, 7.92, 7.49, 6.64, 5.78, 5.14, 5.28, 5.9, 5.9, 5.29, 4.5, 3.7, 3.7, 3.61, 3.78, 4.07, 4.4, 4.4, 4.66, 5.06, 5.59, 6.55, 7.15, 7.59, 6.95, 8.59, 8.23, 9.82, 8.47, 8.69, 6.86, 5.98, 5.78, 4.33, 3.32, 5.02, 9.47, 14.09, 18.52, 13.82, 12.57, 8.7, 3.56, 0.0, 4.05, 6.4, 7.44, 7.74, 7.71, 8.16, 7.71, 7.23, 5.55, 5.02, 5.02, 5.21, 4.13, 3.14, 2.93, 2.82, 2.82, 2.11, 2.11, 2.11, 3.12, 2.11, 2.11, 2.11, 3.12, 3.22, 4.21, 4.05, 5.11, 4.81, 4.81, 5.11, 5.46, 6.02, 7.0, 7.88, 8.68, 8.68, 9.39, 9.39, 10.52, 12.46, 13.39, 13.01, 13.01, 13.38, 12.92, 12.29, 11.7, 11.36, 10.61, 10.61, 9.73, 8.88, 9.74, 9.74, 8.28, 7.59, 6.96, 6.0, 5.06, 5.29, 4.4, 4.6, 4.07, 3.88, 3.88, 3.88, 4.07, 4.25, 4.25, 3.98, 4.4, 4.2, 5.59, 6.45, 6.73, 6.04, 6.83, 7.27, 8.82, 8.82, 9.16, 6.2, 4.18, 4.36, 3.96, 3.81, 1.83, 1.9, 6.0, 10.87, 11.13, 12.18, 11.95, 12.62, 8.68, 5.33, 5.14, 6.43, 6.2, 6.2, 6.09, 6.51, 7.0, 6.35, 4.76, 3.91, 3.2, 5.09, 3.95, 3.17, 2.97, 2.18, 2.18, 2.11, 2.11, 3.12, 3.12, 3.12, 2.11, 3.12, 3.22, 3.22, 4.21, 4.96, 5.11, 4.95, 4.95, 4.95, 5.11, 5.46, 5.85, 6.8, 7.66, 8.68, 8.68, 8.68, 9.91, 11.63, 12.22, 12.65, 13.58, 13.38, 12.92, 12.29, 11.06, 11.06, 11.06, 11.06, 10.33, 9.73, 9.12, 9.12, 8.88, 8.05, 7.69, 5.98, 5.21, 4.98, 5.06, 4.8, 4.32, 5.2, 3.88, 4.07, 4.71, 4.71, 4.25, 4.44, 4.44, 5.95, 6.58, 6.64, 7.06, 5.76, 6.04, 7.76, 8.82, 8.35, 8.02, 6.67, 3.25, 1.22, 0.0, 1.97, 2.9, 2.06, 1.61, 1.58, 3.24, 5.65, 7.7, 9.85, 10.43, 8.2, 7.11, 7.32, 6.84, 6.51, 5.55, 4.95, 4.81, 3.98, 3.13, 2.35, 2.43, 2.89, 3.98, 3.3, 3.01, 2.25, 2.25, 2.9, 2.9, 3.12, 3.12, 3.12, 3.12, 3.12, 3.22, 3.22, 4.21, 4.21, 5.11, 5.11, 4.95, 5.98, 5.81, 5.11, 5.85, 6.8, 6.8, 7.88, 7.88, 8.68, 10.52, 11.63, 12.22, 12.82, 13.2, 12.57, 12.57, 11.38, 11.38, 11.38, 10.77, 11.06, 10.47, 9.73, 9.73, 9.12, 9.12, 8.28, 7.36, 5.99, 4.71, 3.85, 4.78, 5.4, 6.0, 6.9, 5.99, 6.0, 4.73, 4.71, 4.4, 3.95, 4.8, 5.41, 6.31, 7.06, 6.48, 5.89, 6.64, 7.27, 7.27, 7.27, 7.13, 7.48, 5.99, 2.28, 0.0, 1.23, 5.6, 6.94, 3.72, -3.07, -2.94, 1.16, 2.8, 5.38, 7.33, 9.0, 9.39, 8.78, 8.56, 7.12, 5.81, 3.62, 2.15, 1.44, 1.44, 1.42, 1.63, 1.47, 3.22, 3.22, 2.3, 2.28, 2.28, 2.81, 2.81, 2.9, 2.9, 3.12, 3.12, 3.12, 3.22, 3.22, 4.34, 4.34, 3.93, 5.11, 5.64, 5.81, 5.81, 6.16, 6.56, 7.0, 7.0, 7.0, 7.88, 9.39, 11.06, 12.11, 12.65, 12.82, 12.09, 11.87, 11.69, 11.38, 11.06, 11.06, 10.47, 10.77, 9.47, 9.73, 8.88, 8.88, 9.12, 7.92, 7.82, 6.21, 5.14, 4.28, 4.99, 6.3, 6.85, 7.68, 7.2, 5.2, 4.2, 4.2, 4.2, 4.4, 4.6, 5.41, 6.57, 6.79, 6.59, 5.76, 5.76, 6.31, 6.77, 6.18, 6.64, 6.48, 6.97, 6.5, 3.82, 6.14, 6.86, 7.23, 6.18, 0.0, -5.27, -1.66, 1.17, 2.8, 5.16, 7.53, 9.07, 8.46, 7.76, 6.87, 5.56, 3.65, 2.08, 0.7, 0.0, 0.0, 0.0, 0.71, 1.47, 2.25, 2.25, 2.95, 2.95, 1.9, 1.9, 2.81, 3.12, 3.12, 3.12, 3.12, 3.22, 4.21, 4.34, 4.34, 4.34, 4.96, 6.16, 5.81, 6.62, 6.62, 6.34, 6.74, 6.74, 7.63, 9.16, 10.02, 11.58, 12.11, 12.65, 12.82, 11.72, 12.87, 11.03, 11.69, 11.38, 11.38, 10.47, 9.77, 8.64, 8.64, 8.88, 7.92, 7.92, 8.51, 8.05, 6.64, 5.35, 4.92, 5.35, 6.21, 7.43, 6.98, 5.6, 4.6, 4.0, 4.0, 3.44, 3.61, 4.4, 4.6, 5.76, 5.95, 6.2, 6.59, 5.21, 5.36, 4.96, 5.36, 4.94, 4.66, 5.7, 6.76, 6.24, 5.21, 4.6, 3.6, 4.54, 4.71, 0.0, 0.0, 3.53, 3.58, 3.57, 5.26, 6.17, 5.96, 4.83, 4.2, 3.71, 3.04, 1.83, 0.8, 0.0, 0.0, 0.7, 1.45, 2.12, 2.19, 2.3, 2.95, 2.95, 1.9, 1.9, 2.04, 3.12, 3.12, 3.12, 3.12, 3.22, 4.52, 4.34, 4.34, 4.34, 5.3, 4.96, 6.62, 6.62, 6.62, 6.62, 6.62, 7.2, 7.98, 9.81, 10.87, 11.06, 11.76, 12.29, 12.45, 11.72, 10.36, 11.06, 11.03, 11.06, 10.69, 9.23, 9.23, 8.64, 7.71, 7.92, 7.92, 8.51, 8.51, 8.28, 7.36, 6.21, 5.14, 5.57, 6.21, 6.2, 6.2, 5.2, 4.2, 4.0, 3.7, 3.7, 3.88, 4.07, 4.4, 5.18, 5.95, 6.2, 5.95, 5.36, 5.21, 4.68, 4.5, 5.21, 4.88, 3.52, 3.87, 4.8, 4.25, 1.92, 0.0, 0.79, 4.66, 7.0, 5.4, 4.52, 3.04, 2.88, 2.91, 2.83, 2.88, 2.34, 2.58, 2.62, 3.14, 3.01, 2.32, 1.62, 1.57, 1.48, 2.16, 2.23, 2.81, 2.43, 3.1, 3.1, 2.04, 2.04, 2.04, 2.04, 2.11, 2.11, 3.12, 3.47, 3.47, 3.32, 4.34, 4.47, 5.3, 4.96, 6.8, 6.62, 7.36, 7.0, 6.62, 7.57, 8.7, 10.08, 10.87, 11.38, 11.76, 11.87, 11.87, 11.03, 11.03, 10.43, 9.8, 10.1, 8.97, 8.97, 8.28, 8.28, 8.28, 8.28, 8.51, 8.51, 8.51, 8.51, 7.82, 6.67, 5.98, 5.57, 5.99, 6.64, 5.33, 5.4, 4.4, 4.5, 4.5, 3.88, 4.07, 4.07, 4.92, 5.18, 5.7, 5.95, 6.76, 5.46, 4.96, 5.21, 4.94, 5.21, 5.69, 4.4, 4.2, 3.61, 4.3, 2.52, 0.0, 0.0, 3.88, 8.59, 7.97, 3.68, 2.51, 1.42, 1.46, 1.48, 1.65, 1.78, 2.65, 3.56, 4.02, 3.59, 3.73, 3.04, 2.28, 2.41, 2.2, 2.16, 2.23, 3.04, 2.23, 2.23, 3.02, 3.02, 2.04, 2.04, 2.11, 2.11, 3.36, 3.47, 3.58, 3.58, 3.42, 4.47, 5.46, 4.96, 5.81, 6.8, 6.43, 6.8, 6.8, 8.05, 9.35, 10.4, 10.87, 11.38, 11.06, 11.36, 11.36, 11.03, 10.43, 10.75, 10.1, 9.49, 8.72, 8.72, 8.05, 8.05, 8.28, 8.28, 8.51, 8.51, 8.51, 8.28, 6.8, 6.0, 5.4, 4.81, 5.18, 5.55, 5.55, 5.36, 5.14, 5.29, 5.06, 5.06, 4.71, 4.71, 5.52, 5.18, 5.18, 5.86, 6.24, 6.45, 5.21, 5.21, 5.46, 4.6, 4.98, 3.81, 2.83, 3.51, 4.01, 5.08, 2.81, 2.04, 4.03, 6.81, 7.45, 5.55, 3.42, 2.04, 2.5, 3.49, 3.79, 3.79, 4.31, 4.51, 4.18, 3.83, 3.79, 2.98, 2.23, 1.53, 0.81, 0.74, 0.73, 0.73, 2.23, 2.23, 2.04, 2.04, 2.04, 2.04, 2.11, 3.36, 3.47, 3.47, 3.58, 3.58, 3.69, 4.47, 5.46, 5.3, 5.81, 5.99, 6.8, 7.15, 7.82, 8.68, 9.67, 10.4, 10.3, 10.83, 11.06, 10.75, 11.36, 11.03, 10.43, 10.1, 9.49, 9.49, 9.22, 8.46, 8.46, 8.72, 8.05, 8.05, 8.93, 8.28, 7.2, 7.2, 7.0, 4.98, 4.48, 4.32, 4.48, 4.43, 5.55, 5.36, 5.98, 5.29, 5.06, 5.64, 5.64, 5.28, 5.52, 5.18, 5.18, 5.86, 6.08, 6.0, 5.7, 4.0, 4.2, 4.6, 2.98, 2.69, 2.83, 2.7, 3.92, 5.0, 4.74, 3.57, 3.09, 5.26, 6.64, 7.99, 7.38, 8.01, 7.7, 7.0, 6.28, 5.81, 5.1, 4.95, 4.54, 3.83, 2.28, 1.51, 1.54, 0.79, 0.0, 0.0, 0.0, 0.0, 0.77, 0.77, 1.97, 1.97, 2.2, 2.2, 2.28, 3.36, 3.47, 2.35, 2.43, 3.58, 3.69, 4.81, 5.46, 5.11, 5.81, 5.81, 5.99, 7.54, 8.83, 9.25, 9.67, 10.11, 10.3, 10.83, 10.52, 10.17, 10.75, 9.8, 9.8, 10.1, 9.49, 9.49, 9.22, 9.22, 8.46, 8.46, 8.46, 7.82, 8.05, 7.2, 7.2, 6.66, 6.8, 4.55, 3.82, 3.98, 4.32, 4.65, 5.8, 5.8, 6.21, 6.41, 5.9, 5.64, 5.28, 5.28, 5.52, 5.52, 5.14, 5.0, 5.4, 5.78, 4.6, 4.4, 4.2, 3.87, 2.83, 2.98, 2.83, 3.81, 4.6, 6.24, 5.73, 5.78, 4.79, 2.43, 4.34, 6.12, 8.24, 10.2, 11.65, 9.8, 7.97, 7.11, 6.34, 5.81, 4.4, 3.04, 2.23, 1.48, 0.78, 0.0, 0.0, 0.0, -0.89, -0.76, -0.76, 0.0, 2.13, 2.13, 2.2, 2.2, 2.28, 2.28, 2.35, 2.35, 2.43, 3.58, 3.69, 4.47, 5.46, 5.99, 5.64, 5.48, 5.81, 7.21, 8.65, 9.09, 9.67, 9.67, 9.54, 10.3, 10.52, 10.75, 9.87, 9.87, 9.8, 9.8, 9.49, 9.22, 9.22, 8.46, 8.46, 8.46, 7.36, 7.82, 6.8, 7.0, 5.81, 5.98, 5.48, 4.24, 3.65, 3.98, 4.32, 4.65, 6.51, 7.19, 6.94, 6.67, 6.15, 5.64, 5.28, 4.71, 4.92, 4.92, 5.35, 5.0, 5.4, 5.78, 5.0, 4.88, 4.0, 4.0, 4.0, 4.0, 5.21, 4.78, 5.7, 6.76, 6.0, 6.24, 6.65, 3.23, 0.0, 1.34, 6.08, 10.58, 10.84, 8.86, 8.0, 7.71, 7.13, 5.65, 4.94, 3.74, 2.25, 1.53, 0.0, 0.0, -0.87, -0.89, -1.65, -1.55, -2.18, -0.76, 2.13, 2.13, 2.13, 2.2, 2.28, 2.28, 2.35, 2.35, 2.43, 2.43, 3.42, 4.47, 5.46, 5.99, 6.43, 6.24, 6.24, 6.99, 8.43, 8.65, 9.09, 9.09, 9.54, 10.02, 10.52, 10.22, 9.92, 9.87, 8.94, 8.94, 9.22, 9.22, 8.46, 8.46, 8.2, 7.59, 7.36, 6.4, 6.8, 5.64, 5.81, 5.81, 5.48, 4.12, 4.36, 5.4, 6.2, 6.95, 7.93, 7.69, 7.19, 6.92, 5.52, 4.92, 4.71, 4.71, 4.92, 5.14, 5.35, 5.35, 5.4, 5.78, 4.2, 4.4, 4.2, 4.2, 4.21, 4.74, 4.78, 5.7, 5.7, 5.29, 4.9, 5.67, 7.8, 9.6, 2.77, 0.0, 5.81, 8.46, 8.29, 7.08, 6.77, 6.52, 6.52, 5.13, 4.38, 3.83, 2.31, 1.5, 0.0, 0.0, -1.77, -1.65, -2.62, -3.32, -2.71, -2.18, 2.13, 2.13, 2.13, 2.2, 2.2, 2.28, 2.28, 2.35, 2.35, 3.32, 3.32, 4.34, 5.11, 5.99, 5.48, 6.24, 6.94, 7.98, 8.18, 9.12, 8.65, 9.27, 9.27, 10.02, 10.52, 10.52, 9.34, 9.06, 8.94, 8.94, 8.94, 9.22, 8.46, 8.46, 8.2, 7.36, 7.36, 6.2, 6.4, 5.48, 5.48, 5.64, 5.31, 4.28, 3.97, 5.8, 7.82, 8.68, 8.18, 7.36, 7.13, 6.44, 5.52, 4.07, 4.07, 4.07, 4.92, 5.14, 5.14, 4.62, 4.64, 4.99, 5.6, 5.06, 4.83, 4.83, 4.21, 4.2, 4.74, 5.46, 5.7, 4.6, 3.39, 4.48, 8.16, 11.53, 12.65, 12.63, 13.11, 10.31, 8.16, 7.15, 7.0, 6.42, 5.08, 4.34, 3.74, 3.01, 2.25, 0.75, 0.0, 0.0, -1.55, -2.45, -4.21, -4.99, 2.37, 2.37, 1.04, 1.04, 1.08, 1.08, 2.2, 2.2, 2.11, 2.18, 3.93, 3.93, 4.96, 4.96, 4.96, 5.81, 5.81, 6.6, 7.32, 8.4, 8.4, 8.85, 8.65, 8.65, 9.27, 9.73, 10.22, 10.22, 9.34, 9.06, 8.41, 8.66, 8.66, 8.66, 8.2, 8.2, 8.2, 7.13, 7.13, 6.0, 5.15, 5.31, 5.31, 4.11, 3.98, 3.6, 4.48, 6.0, 7.59, 7.82, 7.36, 7.13, 6.0, 5.4, 4.4, 3.88, 4.07, 4.07, 4.44, 4.44, 4.62, 4.62, 4.81, 4.99, 5.2, 4.6, 5.06, 4.83, 4.83, 4.83, 5.2, 5.9, 4.4, 3.49, 3.77, 5.14, 8.23, 10.46, 12.34, 14.37, 16.63, 15.01, 13.11, 10.79, 9.25, 7.49, 5.73, 4.7, 2.99, 1.51, 0.75, 0.74, 0.0, -0.74, -2.31, -4.21, -5.4, 12.07, 12.07, 12.07, 1.04, 1.04, 1.08, 1.08, 2.2, 2.2, 3.12, 4.97, 5.46, 5.63, 6.4, 6.6, 6.6, 6.6, 6.6, 6.99, 7.73, 8.4, 8.4, 8.4, 8.65, 9.12, 9.12, 9.73, 9.73, 9.12, 8.85, 8.41, 8.15, 8.66, 8.38, 7.69, 7.69, 7.95, 8.2, 6.9, 6.0, 6.0, 4.98, 4.98, 3.98, 3.98, 3.85, 3.47, 4.32, 5.8, 6.95, 7.36, 6.0, 5.6, 5.4, 5.0, 4.2, 4.2, 4.4, 4.07, 4.44, 4.44, 4.62, 4.62, 4.81, 4.99, 5.4, 5.4, 5.29, 5.06, 4.83, 6.14, 5.46, 4.78, 3.49, 2.57, 4.4, 6.24, 6.7, 7.13, 9.55, 11.65, 13.87, 16.29, 15.86, 14.13, 12.41, 10.61, 7.33, 5.13, 3.8, 2.3, 0.74, 0.0, 0.0, -1.51, -3.11, -6.56, 0.0, 12.07, 12.07, 12.07, 0.96, 0.96, 1.08, 1.08, 2.2, 3.25, 4.38, 5.81, 6.78, 6.4, 7.1, 7.32, 7.32, 7.32, 7.73, 7.73, 7.73, 7.73, 7.73, 7.73, 7.97, 9.12, 9.12, 9.12, 9.12, 9.12, 8.18, 8.41, 8.15, 7.89, 7.69, 7.69, 7.69, 6.9, 6.9, 6.9, 5.8, 4.58, 4.58, 4.58, 3.85, 3.85, 3.73, 4.32, 4.15, 5.86, 6.51, 6.51, 6.0, 5.4, 5.0, 4.6, 4.0, 4.2, 4.4, 4.25, 4.25, 3.67, 3.82, 3.82, 4.62, 4.81, 5.4, 5.64, 6.21, 5.06, 4.83, 4.0, 4.98, 3.81, 3.87, 4.2, 5.7, 6.24, 6.08, 4.93, 5.73, 8.03, 11.68, 13.17, 15.52, 15.89, 15.36, 12.98, 9.13, 6.66, 5.06, 3.04, 1.54, 0.0, 0.0, -1.98, -4.81, -5.06, 4.65, 11.79, 11.79, 11.79, 0.96, 0.96, 1.08, 1.08, 2.13, 3.25, 5.16, 6.2, 6.78, 6.78, 7.1, 7.1, 7.32, 7.32, 7.73, 7.73, 6.99, 6.99, 6.99, 6.99, 7.73, 9.12, 9.12, 9.12, 8.43, 8.43, 8.18, 7.68, 7.44, 7.44, 7.2, 6.21, 6.67, 6.67, 5.8, 5.8, 4.43, 4.43, 3.53, 3.41, 3.73, 3.73, 3.73, 4.32, 4.54, 4.9, 6.3, 5.27, 6.3, 5.4, 5.0, 4.4, 4.0, 4.2, 4.4, 4.07, 3.51, 3.67, 3.82, 3.82, 4.62, 5.0, 5.4, 5.4, 6.2, 5.29, 4.83, 4.21, 4.2, 3.81, 3.81, 5.7, 5.52, 5.35, 4.33, 4.49, 4.98, 6.6, 8.86, 10.89, 13.76, 15.21, 15.9, 13.68, 10.4, 8.3, 5.26, 3.57, 2.25, 1.29, 3.44, 3.04, 0.0, 2.37, 8.67, 11.26, 11.26, 11.26, 0.89, 0.89, 0.99, 1.08, 3.02, 4.81, 6.0, 6.98, 6.57, 6.78, 6.4, 6.4, 6.6, 6.6, 6.99, 6.99, 6.99, 6.99, 6.99, 6.99, 8.18, 8.43, 8.43, 8.43, 8.43, 7.66, 7.43, 7.68, 7.44, 6.64, 6.42, 5.36, 5.36, 5.6, 4.65, 4.28, 4.28, 3.29, 3.41, 3.73, 3.73, 3.73, 3.73, 4.48, 4.54, 4.9, 5.08, 5.08, 5.08, 4.72, 3.98, 4.4, 4.0, 4.2, 4.4, 3.36, 3.51, 3.67, 3.82, 3.82, 3.98, 5.0, 5.2, 6.7, 6.45, 5.29, 4.6, 4.6, 4.4, 5.45, 4.78, 5.7, 5.14, 4.3, 4.47, 5.06, 5.8, 6.73, 8.18, 9.11, 10.57, 13.95, 15.44, 15.11, 12.84, 8.94, 5.56, 4.17, 3.81, 5.86, 7.68, 7.68, 7.95, 8.69, 11.41, 11.26, 11.26, 11.26, 0.89, 0.89, 0.99, 2.72, 3.81, 5.62, 6.98, 6.57, 6.57, 6.57, 6.78, 6.4, 6.4, 6.99, 6.99, 6.99, 6.99, 6.99, 6.99, 6.78, 7.5, 8.18, 8.43, 7.66, 7.66, 7.66, 7.43, 6.4, 6.2, 5.33, 5.55, 5.55, 5.36, 4.28, 4.28, 4.48, 4.12, 4.28, 3.6, 3.6, 3.6, 3.6, 3.6, 3.47, 4.54, 4.9, 5.08, 5.08, 4.9, 4.54, 4.36, 4.18, 3.49, 3.32, 3.49, 3.36, 3.51, 3.51, 3.98, 3.98, 3.98, 3.98, 5.64, 6.7, 6.97, 5.52, 4.83, 4.83, 5.06, 4.4, 4.18, 4.99, 4.44, 4.3, 5.2, 5.72, 5.93, 6.65, 8.31, 8.31, 8.83, 12.16, 15.31, 17.88, 14.65, 11.58, 7.57, 4.94, 6.94, 7.64, 8.07, 7.72, 8.69, 10.8, 11.6, 11.26, 11.26, 11.26, 0.89, 0.89, 2.72, 3.56, 4.65, 5.62, 6.57, 6.57, 6.57, 6.78, 6.78, 6.78, 6.99, 6.18, 6.18, 6.18, 6.99, 6.99, 6.99, 7.73, 7.73, 7.43, 7.66, 7.66, 6.8, 6.6, 6.6, 5.5, 5.33, 5.16, 5.55, 5.55, 5.36, 5.18, 4.65, 4.48, 4.48, 4.48, 4.48, 3.6, 3.6, 3.6, 3.6, 3.47, 4.72, 5.08, 5.27, 5.08, 4.72, 4.36, 4.18, 3.99, 3.65, 3.49, 3.49, 3.36, 3.65, 3.82, 3.82, 3.98, 3.98, 3.98, 5.43, 6.7, 6.97, 5.95, 5.72, 5.46, 4.4, 4.2, 3.99, 3.99, 4.6, 5.35, 5.86, 5.72, 5.93, 6.79, 8.45, 8.72, 8.45, 10.68, 15.17, 16.51, 14.65, 11.36, 6.4, 6.67, 7.25, 7.9, 7.73, 8.53, 10.56, 11.41, 11.64, 10.28, 10.28, 10.28, 1.65, 2.45, 2.54, 3.56, 4.65, 5.62, 5.81, 5.81, 5.81, 5.99, 5.99, 5.99, 6.18, 6.18, 6.18, 6.18, 6.99, 6.99, 6.99, 6.99, 6.99, 7.43, 6.8, 6.8, 6.6, 6.6, 5.67, 5.5, 5.33, 5.33, 5.55, 5.55, 5.36, 5.18, 5.18, 4.48, 4.48, 4.48, 4.48, 4.48, 3.47, 3.47, 3.47, 4.48, 4.9, 5.08, 5.27, 5.08, 4.72, 4.36, 4.18, 3.99, 3.65, 3.32, 3.49, 3.49, 3.65, 2.83, 2.83, 2.95, 3.82, 3.82, 5.21, 6.45, 7.24, 6.45, 5.98, 5.21, 5.45, 4.4, 4.4, 4.4, 3.81, 4.8, 5.35, 6.08, 6.94, 7.51, 8.05, 7.63, 7.63, 9.02, 10.83, 12.16, 10.74, 7.64, 5.73, 5.63, 6.31, 7.89, 8.87, 10.3, 11.28, 12.18, 11.03, 9.56, 9.56, 9.56, 2.45, 2.31, 3.23, 4.36, 4.65, 5.43, 5.62, 5.81, 5.81, 5.99, 5.99, 6.18, 6.18, 6.18, 6.18, 6.18, 6.18, 6.18, 6.18, 6.18, 6.18, 6.18, 6.6, 6.6, 6.6, 5.67, 5.67, 5.5, 5.33, 5.73, 5.55, 5.55, 5.36, 5.36, 5.18, 4.12, 4.48, 4.32, 4.32, 4.32, 4.48, 4.48, 4.48, 4.32, 4.9, 5.08, 5.27, 5.08, 4.9, 4.54, 4.18, 3.99, 3.99, 3.32, 3.49, 2.7, 2.7, 2.83, 2.83, 2.83, 2.95, 3.82, 5.21, 6.2, 7.24, 6.16, 5.95, 5.1, 5.45, 6.17, 6.17, 5.7, 4.78, 5.21, 4.8, 6.24, 6.7, 6.94, 6.31, 6.94, 7.19, 7.78, 8.15, 7.56, 5.57, 5.22, 4.4, 3.58, 4.65, 8.41, 10.92, 11.25, 11.34, 10.98, 9.89, 9.48, 9.48, 9.48, 2.31, 2.31, 3.23, 4.36, 4.65, 4.65, 4.81, 4.97, 5.81, 5.99, 5.99, 6.18, 6.18, 6.18, 6.18, 6.18, 6.18, 5.3, 5.3, 5.3, 5.3, 5.67, 5.67, 5.67, 5.67, 5.3, 5.5, 5.5, 5.73, 5.55, 5.55, 5.36, 5.36, 4.43, 4.28, 4.12, 4.48, 4.32, 4.32, 4.32, 4.32, 4.32, 4.32, 4.32, 4.72, 4.72, 4.9, 4.9, 4.9, 4.54, 4.36, 4.18, 3.99, 2.7, 2.57, 2.57, 2.7, 2.7, 2.7, 2.83, 2.83, 3.82, 4.99, 6.2, 6.16, 6.4, 5.4, 6.2, 5.98, 5.72, 5.9, 6.17, 5.95, 5.95, 5.7, 6.41, 6.84, 6.08, 5.86, 6.24, 7.1, 7.19, 7.5, 4.48, 5.66, 3.97, 2.87, 2.85, 4.99, 10.36, 12.13, 11.52, 11.26, 10.54, 8.87, 8.31, 8.31, 8.31, 2.31, 2.31, 3.23, 4.21, 4.65, 4.65, 4.81, 4.81, 4.97, 4.97, 5.14, 5.14, 5.3, 5.3, 5.3, 5.3, 5.3, 4.34, 4.34, 4.47, 4.34, 5.67, 5.67, 5.67, 5.67, 5.5, 5.5, 5.5, 5.73, 5.55, 5.55, 5.36, 4.43, 4.28, 4.28, 4.48, 4.48, 4.32, 4.32, 4.15, 4.32, 4.32, 4.32, 4.32, 4.54, 4.54, 4.72, 4.72, 4.72, 4.54, 4.36, 4.18, 3.11, 2.83, 2.7, 2.57, 2.57, 2.35, 2.47, 2.47, 3.49, 4.4, 4.99, 5.21, 5.43, 4.72, 4.9, 5.0, 5.7, 4.88, 5.72, 5.45, 5.95, 5.95, 6.86, 6.86, 6.98, 6.84, 6.24, 6.15, 6.41, 6.94, 7.78, 6.35, 8.08, 3.25, 1.54, 2.9, 9.48, 12.17, 12.41, 10.81, 10.43, 9.16, 8.58, 7.93, 7.93, 7.93, 3.04, 3.04, 3.23, 4.21, 4.21, 4.65, 4.81, 4.97, 4.97, 4.97, 4.97, 5.14, 5.3, 5.3, 4.96, 4.05, 4.34, 4.34, 4.34, 4.47, 5.46, 5.67, 5.67, 5.67, 5.5, 5.5, 5.5, 5.33, 5.33, 5.55, 4.58, 4.43, 4.43, 4.28, 4.28, 4.48, 4.48, 4.32, 4.32, 4.15, 4.15, 4.32, 4.32, 4.15, 4.15, 4.36, 4.36, 4.36, 4.36, 3.39, 3.39, 3.25, 3.11, 2.83, 2.83, 2.7, 2.35, 2.35, 2.35, 3.21, 3.49, 4.2, 4.78, 4.99, 5.43, 4.72, 4.72, 5.0, 4.8, 3.87, 4.88, 4.6, 4.99, 5.95, 5.95, 6.17, 6.86, 6.98, 6.57, 6.57, 7.26, 6.7, 8.8, 11.15, 10.91, 4.76, 2.72, 7.11, 12.87, 12.99, 11.69, 10.43, 9.82, 8.4, 7.93, 7.93, 7.93, 7.93, 3.23, 3.23, 3.23, 4.21, 4.21, 4.21, 4.36, 3.94, 3.94, 3.94, 4.08, 4.21, 4.21, 4.05, 4.05, 4.05, 4.34, 4.34, 4.34, 4.47, 5.46, 5.85, 5.85, 4.66, 4.52, 4.52, 4.52, 5.33, 5.33, 4.24, 4.43, 4.43, 4.28, 4.28, 4.65, 5.4, 5.4, 5.2, 5.0, 4.15, 4.15, 4.15, 4.15, 4.15, 3.98, 4.36, 4.36, 3.39, 3.25, 3.25, 3.25, 3.25, 2.95, 2.83, 2.83, 2.7, 2.47, 2.35, 3.06, 3.06, 4.2, 4.2, 4.4, 4.6, 3.98, 4.54, 3.53, 3.92, 4.6, 4.4, 4.05, 4.6, 4.8, 5.92, 6.2, 5.45, 4.4, 5.29, 5.76, 6.31, 6.57, 6.65, 7.2, 9.91, 9.89, 7.7, 5.23, 8.1, 12.17, 12.27, 10.75, 9.39, 9.25, 8.65, 8.18, 7.93, 7.93, 7.93, 3.23, 3.23, 3.44, 4.21, 4.36, 3.56, 3.56, 3.56, 3.94, 3.94, 2.9, 3.0, 3.0, 3.09, 3.09, 4.05, 4.34, 4.34, 4.34, 4.34, 5.46, 5.46, 5.46, 4.66, 4.52, 4.52, 4.52, 5.33, 5.16, 5.16, 4.43, 4.28, 4.28, 5.18, 5.4, 5.4, 5.4, 5.2, 5.2, 4.15, 4.15, 4.15, 4.15, 4.15, 3.98, 4.36, 4.36, 3.25, 3.25, 3.25, 3.25, 2.23, 2.02, 1.93, 1.93, 1.93, 1.68, 2.35, 2.35, 3.32, 4.0, 4.2, 4.4, 3.82, 3.82, 3.08, 3.39, 3.77, 3.61, 4.6, 4.6, 5.32, 5.32, 5.92, 5.69, 5.45, 4.4, 4.78, 5.29, 6.15, 5.0, 5.06, 5.31, 5.65, 5.74, 7.2, 10.76, 11.18, 10.92, 10.75, 9.62, 8.65, 8.68, 8.2, 8.18, 8.18, 8.18, 8.18, 3.23, 3.23, 3.44, 3.44, 3.56, 3.34, 3.56, 3.68, 2.81, 2.81, 2.9, 2.9, 3.0, 3.09, 3.09, 4.34, 4.34, 4.34, 4.34, 4.47, 4.47, 4.47, 4.47, 4.34, 4.52, 5.5, 5.33, 5.33, 5.16, 4.99, 5.36, 5.18, 5.18, 4.99, 5.4, 5.4, 5.2, 5.2, 5.2, 4.15, 4.15, 4.15, 4.15, 3.98, 3.98, 4.36, 4.36, 3.25, 3.25, 3.25, 2.23, 1.93, 2.02, 1.93, 1.93, 1.93, 1.84, 2.7, 2.57, 3.15, 4.0, 4.0, 4.2, 3.36, 3.65, 2.83, 3.25, 3.25, 3.61, 3.39, 4.8, 4.8, 5.95, 5.54, 5.69, 5.45, 5.21, 4.2, 4.78, 4.44, 3.53, 3.42, 3.57, 3.5, 4.47, 5.96, 10.35, 13.53, 10.02, 9.91, 9.2, 8.43, 8.46, 8.2, 8.43, 8.18, 8.18, 8.18, 3.23, 3.23, 3.44, 3.44, 3.34, 3.34, 3.34, 3.68, 2.81, 2.81, 2.9, 2.9, 3.0, 3.0, 4.34, 4.21, 4.21, 4.34, 4.34, 4.34, 4.47, 4.47, 4.47, 5.46, 5.5, 5.33, 5.33, 5.33, 5.16, 4.99, 5.36, 5.18, 5.18, 4.99, 4.99, 5.4, 5.4, 5.2, 5.2, 4.15, 4.15, 4.15, 3.98, 3.98, 3.98, 3.98, 2.95, 3.25, 3.25, 3.25, 2.23, 0.98, 0.98, 0.98, 0.98, 0.93, 1.84, 1.84, 2.7, 3.32, 3.15, 3.15, 3.06, 3.06, 3.21, 2.7, 2.83, 3.11, 3.45, 2.7, 3.87, 4.8, 4.8, 4.05, 5.1, 4.6, 4.18, 3.11, 1.93, 2.82, 2.71, 2.61, 3.46, 3.59, 4.37, 6.51, 9.26, 11.65, 11.43, 9.41, 8.64, 7.88, 8.2, 8.43, 8.2, 7.42, 7.42, 7.42, 3.23, 3.23, 3.23, 3.23, 3.23, 3.34, 3.34, 3.34, 2.63, 2.81, 2.9, 2.9, 3.0, 3.93, 4.21, 4.21, 4.21, 4.21, 5.3, 5.3, 5.3, 5.46, 5.46, 5.3, 5.14, 5.33, 5.33, 5.16, 5.16, 4.99, 5.36, 4.28, 4.12, 4.12, 4.99, 4.99, 4.99, 4.81, 4.81, 5.2, 5.0, 4.15, 4.15, 3.98, 3.98, 3.98, 2.95, 2.95, 3.25, 2.23, 0.98, 0.98, 0.98, 0.98, 0.98, 0.93, 1.84, 1.75, 2.7, 3.32, 3.06, 2.9, 2.9, 3.06, 3.06, 3.21, 2.7, 2.97, 3.3, 2.39, 2.7, 3.53, 3.53, 4.15, 3.87, 3.61, 2.23, 2.23, 2.23, 2.1, 2.71, 3.55, 3.46, 4.31, 6.1, 7.98, 9.2, 10.88, 10.91, 10.15, 9.17, 8.88, 8.33, 7.84, 7.4, 5.81, 5.81, 5.81, 3.23, 3.23, 3.34, 3.34, 3.34, 3.34, 3.34, 3.34, 3.34, 3.46, 3.46, 2.9, 3.93, 3.93, 4.21, 4.21, 4.21, 4.21, 4.21, 5.3, 5.3, 5.3, 5.3, 5.3, 5.14, 4.97, 4.97, 5.16, 5.16, 4.99, 4.1, 3.96, 4.12, 4.12, 4.12, 4.81, 4.81, 4.81, 4.81, 4.62, 4.62, 3.82, 3.82, 3.67, 2.82, 2.82, 3.08, 2.02, 2.02, 1.02, 0.0, 0.0, 0.0, 0.0, 0.0, 0.93, 0.93, 1.75, 2.57, 3.06, 3.06, 2.9, 2.9, 2.9, 3.06, 3.06, 2.57, 2.97, 2.97, 2.28, 2.39, 2.39, 3.45, 2.28, 2.82, 2.49, 2.23, 2.23, 3.25, 3.08, 2.94, 3.42, 4.36, 4.29, 7.14, 9.03, 10.3, 10.66, 11.43, 10.69, 9.42, 9.74, 8.56, 8.05, 6.52, 4.6, 4.6, 4.6, 3.23, 3.23, 3.34, 3.34, 3.34, 3.34, 3.34, 3.34, 3.34, 3.46, 3.46, 2.9, 3.93, 3.93, 4.21, 4.21, 4.21, 4.21, 4.21, 5.3, 5.3, 5.3, 5.3, 5.3, 5.14, 4.97, 4.97, 5.16, 5.16, 4.99, 4.1, 3.96, 4.12, 4.12, 4.12, 4.81, 4.81, 4.81, 4.81, 4.62, 4.62, 3.82, 3.82, 3.67, 2.82, 2.82, 3.08, 2.02, 2.02, 1.02, 0.0, 0.0, 0.0, 0.0, 0.0, 0.93, 0.93, 1.75, 2.57, 3.06, 3.06, 2.9, 2.9, 2.9, 3.06, 3.06, 2.57, 2.97, 2.97, 2.28, 2.39, 2.39, 3.45, 2.28, 2.82, 2.49, 2.23, 2.23, 3.25, 3.08, 2.94, 3.53, 4.06, 5.31, 7.23, 9.85, 10.98, 11.6, 11.9, 11.72, 10.73, 10.25, 9.6, 6.88, 4.86, 3.79, 3.79, 3.79]}]